Time,TemperatureF,DewpointF,PressureIn,WindDirection,WindDirectionDegrees,WindSpeedMPH,WindSpeedGustMPH,Humidity,HourlyPrecipIn,Conditions,Clouds,dailyrainin,SoftwareType,DateUTC
2013-05-19 00:00:00,67.9,30.3,29.86,North,0,0.0,0.0,25,0.00,,,0.00,WUHU216HW,2013-05-19 07:00:00,
2013-05-19 00:04:00,67.9,30.3,29.86,North,0,0.0,0.0,25,0.00,,,0.00,WUHU216HW,2013-05-19 07:04:00,
2013-05-19 00:05:00,67.5,30.1,29.86,North,0,0.0,0.0,25,0.00,,,0.00,WUHU216HW,2013-05-19 07:05:00,
2013-05-19 00:06:00,67.5,30.1,29.86,North,0,0.0,0.0,25,0.00,,,0.00,WUHU216HW,2013-05-19 07:06:00,
2013-05-19 00:09:00,67.3,29.9,29.86,North,0,0.0,0.0,25,0.00,,,0.00,WUHU216HW,2013-05-19 07:09:00,
2013-05-19 00:11:00,67.3,29.9,29.86,North,0,0.0,0.0,25,0.00,,,0.00,WUHU216HW,2013-05-19 07:11:00,
2013-05-19 00:12:00,67.3,29.9,29.86,North,0,0.0,0.0,25,0.00,,,0.00,WUHU216HW,2013-05-19 07:12:00,
2013-05-19 00:14:00,67.1,29.7,29.86,North,0,0.0,0.0,25,0.00,,,0.00,WUHU216HW,2013-05-19 07:14:00,
2013-05-19 00:16:00,67.1,29.7,29.86,North,0,0.0,0.0,25,0.00,,,0.00,WUHU216HW,2013-05-19 07:16:00,
2013-05-19 00:17:00,67.0,30.6,29.86,North,0,0.0,0.0,26,0.00,,,0.00,WUHU216HW,2013-05-19 07:17:00,
2013-05-19 00:19:00,66.8,30.4,29.86,North,0,0.0,0.0,26,0.00,,,0.00,WUHU216HW,2013-05-19 07:19:00,
2013-05-19 00:21:00,66.8,30.4,29.86,North,0,0.0,0.0,26,0.00,,,0.00,WUHU216HW,2013-05-19 07:21:00,
2013-05-19 00:22:00,66.8,29.4,29.86,North,0,0.0,0.0,25,0.00,,,0.00,WUHU216HW,2013-05-19 07:22:00,
2013-05-19 00:23:00,67.0,29.6,29.86,North,0,0.0,0.0,25,0.00,,,0.00,WUHU216HW,2013-05-19 07:23:00,
2013-05-19 00:26:00,67.0,29.6,29.86,North,0,0.0,0.0,25,0.00,,,0.00,WUHU216HW,2013-05-19 07:26:00,
2013-05-19 00:27:00,67.0,29.6,29.86,North,0,0.0,0.0,25,0.00,,,0.00,WUHU216HW,2013-05-19 07:27:00,
2013-05-19 00:29:00,67.0,29.6,29.86,North,0,0.0,0.0,25,0.00,,,0.00,WUHU216HW,2013-05-19 07:29:00,
2013-05-19 00:31:00,66.8,29.4,29.86,North,0,0.0,0.0,25,0.00,,,0.00,WUHU216HW,2013-05-19 07:31:00,
2013-05-19 00:32:00,66.6,29.3,29.86,North,0,0.0,0.0,25,0.00,,,0.00,WUHU216HW,2013-05-19 07:32:00,
2013-05-19 00:33:00,66.6,30.3,29.86,North,0,0.0,0.0,26,0.00,,,0.00,WUHU216HW,2013-05-19 07:33:00,
2013-05-19 00:35:00,66.4,30.2,29.86,North,0,0.0,0.0,26,0.00,,,0.00,WUHU216HW,2013-05-19 07:35:00,
2013-05-19 00:36:00,66.4,30.2,29.86,North,0,0.0,0.0,26,0.00,,,0.00,WUHU216HW,2013-05-19 07:36:00,
2013-05-19 00:37:00,66.2,30.0,29.86,North,0,0.0,0.0,26,0.00,,,0.00,WUHU216HW,2013-05-19 07:37:00,
2013-05-19 00:38:00,66.1,29.8,29.86,North,0,0.0,0.0,26,0.00,,,0.00,WUHU216HW,2013-05-19 07:38:00,
2013-05-19 00:39:00,66.1,29.8,29.86,North,0,0.0,0.0,26,0.00,,,0.00,WUHU216HW,2013-05-19 07:39:00,
2013-05-19 00:41:00,65.9,29.7,29.86,North,0,0.0,0.0,26,0.00,,,0.00,WUHU216HW,2013-05-19 07:41:00,
2013-05-19 00:42:00,65.9,29.7,29.86,North,0,0.0,0.0,26,0.00,,,0.00,WUHU216HW,2013-05-19 07:42:00,
2013-05-19 00:44:00,65.9,29.7,29.86,North,0,0.0,0.0,26,0.00,,,0.00,WUHU216HW,2013-05-19 07:44:00,
2013-05-19 00:45:00,65.9,29.7,29.86,North,0,0.0,0.0,26,0.00,,,0.00,WUHU216HW,2013-05-19 07:45:00,
2013-05-19 00:46:00,65.9,29.7,29.86,North,0,0.0,0.0,26,0.00,,,0.00,WUHU216HW,2013-05-19 07:46:00,
2013-05-19 00:47:00,65.9,29.7,29.86,North,0,0.0,0.0,26,0.00,,,0.00,WUHU216HW,2013-05-19 07:47:00,
2013-05-19 00:49:00,65.7,29.5,29.86,North,0,0.0,0.0,26,0.00,,,0.00,WUHU216HW,2013-05-19 07:49:00,
2013-05-19 00:50:00,65.7,30.5,29.86,North,0,0.0,0.0,27,0.00,,,0.00,WUHU216HW,2013-05-19 07:50:00,
2013-05-19 00:52:00,65.5,30.3,29.86,North,0,0.0,0.0,27,0.00,,,0.00,WUHU216HW,2013-05-19 07:52:00,
2013-05-19 00:53:00,65.5,30.3,29.86,North,0,0.0,0.0,27,0.00,,,0.00,WUHU216HW,2013-05-19 07:53:00,
2013-05-19 00:54:00,65.5,29.3,29.86,North,0,0.0,0.0,26,0.00,,,0.00,WUHU216HW,2013-05-19 07:54:00,
2013-05-19 00:55:00,65.5,29.3,29.86,North,0,0.0,0.0,26,0.00,,,0.00,WUHU216HW,2013-05-19 07:55:00,
2013-05-19 00:57:00,65.5,29.3,29.86,North,0,0.0,0.0,26,0.00,,,0.00,WUHU216HW,2013-05-19 07:57:00,
2013-05-19 00:59:00,65.5,29.3,29.86,North,0,0.0,0.0,26,0.00,,,0.00,WUHU216HW,2013-05-19 07:59:00,
2013-05-19 01:00:00,65.5,29.3,29.86,North,0,0.0,0.0,26,0.00,,,0.00,WUHU216HW,2013-05-19 08:00:00,
2013-05-19 01:01:00,65.5,29.3,29.86,North,0,0.0,0.0,26,0.00,,,0.00,WUHU216HW,2013-05-19 08:01:00,
2013-05-19 01:02:00,65.5,29.3,29.86,North,0,0.0,0.0,26,0.00,,,0.00,WUHU216HW,2013-05-19 08:02:00,
2013-05-19 01:05:00,65.7,29.5,29.86,North,0,0.0,0.0,26,0.00,,,0.00,WUHU216HW,2013-05-19 08:05:00,
2013-05-19 01:06:00,65.9,29.7,29.86,North,0,0.0,0.0,26,0.00,,,0.00,WUHU216HW,2013-05-19 08:06:00,
2013-05-19 01:08:00,65.9,29.7,29.86,North,0,0.0,0.0,26,0.00,,,0.00,WUHU216HW,2013-05-19 08:08:00,
2013-05-19 01:10:00,65.9,29.7,29.86,North,0,0.0,0.0,26,0.00,,,0.00,WUHU216HW,2013-05-19 08:10:00,
2013-05-19 01:11:00,66.1,29.8,29.86,North,0,0.0,0.0,26,0.00,,,0.00,WUHU216HW,2013-05-19 08:11:00,
2013-05-19 01:12:00,66.1,29.8,29.86,North,0,0.0,0.0,26,0.00,,,0.00,WUHU216HW,2013-05-19 08:12:00,
2013-05-19 01:13:00,66.1,29.8,29.86,North,0,0.0,0.0,26,0.00,,,0.00,WUHU216HW,2013-05-19 08:13:00,
2013-05-19 01:15:00,66.1,29.8,29.86,North,0,0.0,0.0,26,0.00,,,0.00,WUHU216HW,2013-05-19 08:15:00,
2013-05-19 01:17:00,66.2,30.0,29.86,North,0,0.0,0.0,26,0.00,,,0.00,WUHU216HW,2013-05-19 08:17:00,
2013-05-19 01:18:00,66.2,30.0,29.86,North,0,0.0,0.0,26,0.00,,,0.00,WUHU216HW,2013-05-19 08:18:00,
2013-05-19 01:22:00,66.2,30.0,29.86,North,0,0.0,0.0,26,0.00,,,0.00,WUHU216HW,2013-05-19 08:22:00,
2013-05-19 01:24:00,66.2,30.0,29.86,North,0,0.0,0.0,26,0.00,,,0.00,WUHU216HW,2013-05-19 08:24:00,
2013-05-19 01:27:00,66.1,29.8,29.86,North,0,0.0,0.0,26,0.00,,,0.00,WUHU216HW,2013-05-19 08:27:00,
2013-05-19 01:28:00,66.1,29.8,29.86,North,0,0.0,0.0,26,0.00,,,0.00,WUHU216HW,2013-05-19 08:28:00,
2013-05-19 01:29:00,65.9,29.7,29.86,North,0,0.0,0.0,26,0.00,,,0.00,WUHU216HW,2013-05-19 08:29:00,
2013-05-19 01:30:00,65.9,29.7,29.86,North,0,0.0,0.0,26,0.00,,,0.00,WUHU216HW,2013-05-19 08:30:00,
2013-05-19 01:31:00,65.9,29.7,29.86,North,0,0.0,0.0,26,0.00,,,0.00,WUHU216HW,2013-05-19 08:31:00,
2013-05-19 01:33:00,65.5,29.3,29.86,North,0,0.0,0.0,26,0.00,,,0.00,WUHU216HW,2013-05-19 08:33:00,
2013-05-19 01:35:00,65.2,29.1,29.86,North,0,0.0,0.0,26,0.00,,,0.00,WUHU216HW,2013-05-19 08:35:00,
2013-05-19 01:36:00,65.0,28.9,29.86,North,0,0.0,0.0,26,0.00,,,0.00,WUHU216HW,2013-05-19 08:36:00,
2013-05-19 01:38:00,65.0,30.9,29.86,North,0,0.0,0.0,28,0.00,,,0.00,WUHU216HW,2013-05-19 08:38:00,
2013-05-19 01:39:00,65.0,30.9,29.86,North,0,0.0,0.0,28,0.00,,,0.00,WUHU216HW,2013-05-19 08:39:00,
2013-05-19 01:40:00,65.0,29.9,29.86,North,0,0.0,0.0,27,0.00,,,0.00,WUHU216HW,2013-05-19 08:40:00,
2013-05-19 01:41:00,65.0,29.9,29.86,North,0,0.0,0.0,27,0.00,,,0.00,WUHU216HW,2013-05-19 08:41:00,
2013-05-19 01:43:00,65.2,30.1,29.86,North,0,0.0,0.0,27,0.00,,,0.00,WUHU216HW,2013-05-19 08:43:00,
2013-05-19 01:46:00,65.0,30.9,29.86,North,0,0.0,0.0,28,0.00,,,0.00,WUHU216HW,2013-05-19 08:46:00,
2013-05-19 01:47:00,64.8,30.8,29.86,North,0,0.0,0.0,28,0.00,,,0.00,WUHU216HW,2013-05-19 08:47:00,
2013-05-19 01:50:00,64.4,30.4,29.86,North,0,0.0,0.0,28,0.00,,,0.00,WUHU216HW,2013-05-19 08:50:00,
2013-05-19 01:52:00,64.4,30.4,29.86,North,0,0.0,0.0,28,0.00,,,0.00,WUHU216HW,2013-05-19 08:52:00,
2013-05-19 01:53:00,64.4,30.4,29.86,North,0,0.0,0.0,28,0.00,,,0.00,WUHU216HW,2013-05-19 08:53:00,
2013-05-19 01:56:00,64.3,30.2,29.86,North,0,0.0,0.0,28,0.00,,,0.00,WUHU216HW,2013-05-19 08:56:00,
2013-05-19 01:57:00,64.3,30.2,29.86,North,0,0.0,0.0,28,0.00,,,0.00,WUHU216HW,2013-05-19 08:57:00,
2013-05-19 01:59:00,64.1,29.2,29.86,North,0,0.0,0.0,27,0.00,,,0.00,WUHU216HW,2013-05-19 08:59:00,
2013-05-19 02:02:00,63.9,29.0,29.86,North,0,0.0,0.0,27,0.00,,,0.00,WUHU216HW,2013-05-19 09:02:00,
2013-05-19 02:04:00,63.7,28.8,29.86,North,0,0.0,0.0,27,0.00,,,0.00,WUHU216HW,2013-05-19 09:04:00,
2013-05-19 02:06:00,63.7,28.8,29.86,North,0,0.0,0.0,27,0.00,,,0.00,WUHU216HW,2013-05-19 09:06:00,
2013-05-19 02:07:00,63.7,28.8,29.86,North,0,0.0,0.0,27,0.00,,,0.00,WUHU216HW,2013-05-19 09:07:00,
2013-05-19 02:10:00,63.7,28.8,29.86,North,0,0.0,0.0,27,0.00,,,0.00,WUHU216HW,2013-05-19 09:10:00,
2013-05-19 02:11:00,63.5,29.6,29.86,North,0,0.0,0.0,28,0.00,,,0.00,WUHU216HW,2013-05-19 09:11:00,
2013-05-19 02:12:00,63.4,29.4,29.86,North,0,0.0,0.0,28,0.00,,,0.00,WUHU216HW,2013-05-19 09:12:00,
2013-05-19 02:13:00,63.4,29.4,29.86,North,0,0.0,0.0,28,0.00,,,0.00,WUHU216HW,2013-05-19 09:13:00,
2013-05-19 02:15:00,63.4,29.4,29.86,North,0,0.0,0.0,28,0.00,,,0.00,WUHU216HW,2013-05-19 09:15:00,
2013-05-19 02:16:00,63.4,29.4,29.86,North,0,0.0,0.0,28,0.00,,,0.00,WUHU216HW,2013-05-19 09:16:00,
2013-05-19 02:17:00,63.4,29.4,29.86,North,0,0.0,0.0,28,0.00,,,0.00,WUHU216HW,2013-05-19 09:17:00,
2013-05-19 02:18:00,63.2,29.4,29.86,North,0,0.0,0.0,28,0.00,,,0.00,WUHU216HW,2013-05-19 09:18:00,
2013-05-19 02:19:00,63.2,29.4,29.86,North,0,0.0,0.0,28,0.00,,,0.00,WUHU216HW,2013-05-19 09:19:00,
2013-05-19 02:21:00,63.2,29.4,29.86,North,0,0.0,0.0,28,0.00,,,0.00,WUHU216HW,2013-05-19 09:21:00,
2013-05-19 02:22:00,63.2,29.4,29.86,North,0,0.0,0.0,28,0.00,,,0.00,WUHU216HW,2013-05-19 09:22:00,
2013-05-19 02:23:00,63.2,29.4,29.86,North,0,0.0,0.0,28,0.00,,,0.00,WUHU216HW,2013-05-19 09:23:00,
2013-05-19 02:24:00,63.2,29.4,29.86,North,0,0.0,0.0,28,0.00,,,0.00,WUHU216HW,2013-05-19 09:24:00,
2013-05-19 02:25:00,63.2,29.4,29.86,North,0,0.0,0.0,28,0.00,,,0.00,WUHU216HW,2013-05-19 09:25:00,
2013-05-19 02:26:00,63.0,29.2,29.86,North,0,0.0,0.0,28,0.00,,,0.00,WUHU216HW,2013-05-19 09:26:00,
2013-05-19 02:28:00,63.0,30.2,29.86,North,0,0.0,0.0,29,0.00,,,0.00,WUHU216HW,2013-05-19 09:28:00,
2013-05-19 02:29:00,63.0,30.2,29.86,North,0,0.0,0.0,29,0.00,,,0.00,WUHU216HW,2013-05-19 09:29:00,
2013-05-19 02:31:00,62.6,28.8,29.86,North,0,0.0,0.0,28,0.00,,,0.00,WUHU216HW,2013-05-19 09:31:00,
2013-05-19 02:34:00,62.6,29.8,29.86,North,0,0.0,0.0,29,0.00,,,0.00,WUHU216HW,2013-05-19 09:34:00,
2013-05-19 02:35:00,62.5,29.6,29.86,North,0,0.0,0.0,29,0.00,,,0.00,WUHU216HW,2013-05-19 09:35:00,
2013-05-19 02:37:00,62.5,29.6,29.86,North,0,0.0,0.0,29,0.00,,,0.00,WUHU216HW,2013-05-19 09:37:00,
2013-05-19 02:38:00,62.3,29.5,29.86,North,0,0.0,0.0,29,0.00,,,0.00,WUHU216HW,2013-05-19 09:38:00,
2013-05-19 02:40:00,62.3,29.5,29.86,North,0,0.0,0.0,29,0.00,,,0.00,WUHU216HW,2013-05-19 09:40:00,
2013-05-19 02:42:00,62.3,29.5,29.86,North,0,0.0,0.0,29,0.00,,,0.00,WUHU216HW,2013-05-19 09:42:00,
2013-05-19 02:43:00,62.3,29.5,29.86,North,0,0.0,0.0,29,0.00,,,0.00,WUHU216HW,2013-05-19 09:43:00,
2013-05-19 02:44:00,62.3,29.5,29.86,North,0,0.0,0.0,29,0.00,,,0.00,WUHU216HW,2013-05-19 09:44:00,
2013-05-19 02:45:00,62.3,30.4,29.86,North,0,0.0,0.0,30,0.00,,,0.00,WUHU216HW,2013-05-19 09:45:00,
2013-05-19 02:48:00,62.1,30.3,29.86,North,0,0.0,0.0,30,0.00,,,0.00,WUHU216HW,2013-05-19 09:48:00,
2013-05-19 02:49:00,61.9,30.2,29.86,North,0,0.0,0.0,30,0.00,,,0.00,WUHU216HW,2013-05-19 09:49:00,
2013-05-19 02:51:00,61.9,30.2,29.86,North,0,0.0,0.0,30,0.00,,,0.00,WUHU216HW,2013-05-19 09:51:00,
2013-05-19 02:53:00,61.9,30.9,29.86,North,0,0.0,0.0,31,0.00,,,0.00,WUHU216HW,2013-05-19 09:53:00,
2013-05-19 02:54:00,61.9,30.9,29.86,North,0,0.0,0.0,31,0.00,,,0.00,WUHU216HW,2013-05-19 09:54:00,
2013-05-19 02:55:00,61.9,30.2,29.86,North,0,0.0,0.0,30,0.00,,,0.00,WUHU216HW,2013-05-19 09:55:00,
2013-05-19 02:57:00,61.9,30.2,29.86,North,0,0.0,0.0,30,0.00,,,0.00,WUHU216HW,2013-05-19 09:57:00,
2013-05-19 02:58:00,61.7,30.0,29.86,North,0,0.0,0.0,30,0.00,,,0.00,WUHU216HW,2013-05-19 09:58:00,
2013-05-19 02:59:00,61.7,30.7,29.86,North,0,0.0,0.0,31,0.00,,,0.00,WUHU216HW,2013-05-19 09:59:00,
2013-05-19 03:00:00,61.7,30.7,29.86,North,0,0.0,0.0,31,0.00,,,0.00,WUHU216HW,2013-05-19 10:00:00,
2013-05-19 03:02:00,61.7,30.7,29.86,North,0,0.0,0.0,31,0.00,,,0.00,WUHU216HW,2013-05-19 10:02:00,
2013-05-19 03:03:00,61.7,30.7,29.86,North,0,0.0,0.0,31,0.00,,,0.00,WUHU216HW,2013-05-19 10:03:00,
2013-05-19 03:04:00,61.6,30.5,29.86,North,0,0.0,0.0,31,0.00,,,0.00,WUHU216HW,2013-05-19 10:04:00,
2013-05-19 03:05:00,61.6,30.5,29.86,North,0,0.0,0.0,31,0.00,,,0.00,WUHU216HW,2013-05-19 10:05:00,
2013-05-19 03:07:00,61.6,30.5,29.86,North,0,0.0,0.0,31,0.00,,,0.00,WUHU216HW,2013-05-19 10:07:00,
2013-05-19 03:09:00,61.6,29.8,29.86,North,0,0.0,0.0,30,0.00,,,0.00,WUHU216HW,2013-05-19 10:09:00,
2013-05-19 03:10:00,61.6,29.8,29.86,North,0,0.0,0.0,30,0.00,,,0.00,WUHU216HW,2013-05-19 10:10:00,
2013-05-19 03:11:00,61.6,29.8,29.86,North,0,0.0,0.0,30,0.00,,,0.00,WUHU216HW,2013-05-19 10:11:00,
2013-05-19 03:12:00,61.6,30.5,29.86,North,0,0.0,0.0,31,0.00,,,0.00,WUHU216HW,2013-05-19 10:12:00,
2013-05-19 03:14:00,61.6,31.2,29.86,North,0,0.0,0.0,32,0.00,,,0.00,WUHU216HW,2013-05-19 10:14:00,
2013-05-19 03:16:00,61.4,31.1,29.86,North,0,0.0,0.0,32,0.00,,,0.00,WUHU216HW,2013-05-19 10:16:00,
2013-05-19 03:17:00,61.4,31.1,29.86,North,0,0.0,0.0,32,0.00,,,0.00,WUHU216HW,2013-05-19 10:17:00,
2013-05-19 03:18:00,61.4,31.1,29.86,North,0,0.0,0.0,32,0.00,,,0.00,WUHU216HW,2013-05-19 10:18:00,
2013-05-19 03:19:00,61.2,30.3,29.86,North,0,0.0,0.0,31,0.00,,,0.00,WUHU216HW,2013-05-19 10:19:00,
2013-05-19 03:21:00,61.2,30.3,29.86,North,0,0.0,0.0,31,0.00,,,0.00,WUHU216HW,2013-05-19 10:21:00,
2013-05-19 03:22:00,61.2,30.3,29.86,North,0,0.0,0.0,31,0.00,,,0.00,WUHU216HW,2013-05-19 10:22:00,
2013-05-19 03:23:00,61.2,30.3,29.86,North,0,0.0,0.0,31,0.00,,,0.00,WUHU216HW,2013-05-19 10:23:00,
2013-05-19 03:25:00,61.2,30.3,29.86,North,0,0.0,0.0,31,0.00,,,0.00,WUHU216HW,2013-05-19 10:25:00,
2013-05-19 03:28:00,61.0,30.1,29.86,North,0,0.0,0.0,31,0.00,,,0.00,WUHU216HW,2013-05-19 10:28:00,
2013-05-19 03:29:00,61.0,30.1,29.86,North,0,0.0,0.0,31,0.00,,,0.00,WUHU216HW,2013-05-19 10:29:00,
2013-05-19 03:31:00,60.8,29.9,29.86,North,0,0.0,0.0,31,0.00,,,0.00,WUHU216HW,2013-05-19 10:31:00,
2013-05-19 03:33:00,60.8,29.9,29.86,North,0,0.0,0.0,31,0.00,,,0.00,WUHU216HW,2013-05-19 10:33:00,
2013-05-19 03:34:00,60.8,29.9,29.86,North,0,0.0,0.0,31,0.00,,,0.00,WUHU216HW,2013-05-19 10:34:00,
2013-05-19 03:35:00,60.7,30.4,29.86,North,0,0.0,0.0,32,0.00,,,0.00,WUHU216HW,2013-05-19 10:35:00,
2013-05-19 03:38:00,60.7,30.4,29.86,North,0,0.0,0.0,32,0.00,,,0.00,WUHU216HW,2013-05-19 10:38:00,
2013-05-19 03:39:00,60.7,30.4,29.86,North,0,0.0,0.0,32,0.00,,,0.00,WUHU216HW,2013-05-19 10:39:00,
2013-05-19 03:41:00,60.7,30.4,29.86,North,0,0.0,0.0,32,0.00,,,0.00,WUHU216HW,2013-05-19 10:41:00,
2013-05-19 03:42:00,60.8,30.6,29.86,North,0,0.0,0.0,32,0.00,,,0.00,WUHU216HW,2013-05-19 10:42:00,
2013-05-19 03:43:00,60.7,29.7,29.86,North,0,0.0,0.0,31,0.00,,,0.00,WUHU216HW,2013-05-19 10:43:00,
2013-05-19 03:44:00,60.7,29.7,29.86,North,0,0.0,0.0,31,0.00,,,0.00,WUHU216HW,2013-05-19 10:44:00,
2013-05-19 03:46:00,60.7,29.7,29.86,North,0,0.0,0.0,31,0.00,,,0.00,WUHU216HW,2013-05-19 10:46:00,
2013-05-19 03:47:00,60.7,29.7,29.86,North,0,0.0,0.0,31,0.00,,,0.00,WUHU216HW,2013-05-19 10:47:00,
2013-05-19 03:49:00,60.5,29.6,29.86,North,0,0.0,0.0,31,0.00,,,0.00,WUHU216HW,2013-05-19 10:49:00,
2013-05-19 03:51:00,60.5,30.3,29.86,North,0,0.0,0.0,32,0.00,,,0.00,WUHU216HW,2013-05-19 10:51:00,
2013-05-19 03:52:00,60.3,29.4,29.87,North,0,0.0,0.0,31,0.00,,,0.00,WUHU216HW,2013-05-19 10:52:00,
2013-05-19 03:54:00,60.3,29.4,29.86,North,0,0.0,0.0,31,0.00,,,0.00,WUHU216HW,2013-05-19 10:54:00,
2013-05-19 03:56:00,60.3,29.4,29.87,North,0,0.0,0.0,31,0.00,,,0.00,WUHU216HW,2013-05-19 10:56:00,
2013-05-19 03:57:00,60.3,29.4,29.87,North,0,0.0,0.0,31,0.00,,,0.00,WUHU216HW,2013-05-19 10:57:00,
2013-05-19 03:58:00,60.3,29.4,29.87,North,0,0.0,0.0,31,0.00,,,0.00,WUHU216HW,2013-05-19 10:58:00,
2013-05-19 04:00:00,60.1,30.0,29.87,North,0,0.0,0.0,32,0.00,,,0.00,WUHU216HW,2013-05-19 11:00:00,
2013-05-19 04:01:00,60.1,30.0,29.87,North,0,0.0,0.0,32,0.00,,,0.00,WUHU216HW,2013-05-19 11:01:00,
2013-05-19 04:02:00,60.1,30.0,29.87,North,0,0.0,0.0,32,0.00,,,0.00,WUHU216HW,2013-05-19 11:02:00,
2013-05-19 04:03:00,59.9,29.9,29.87,North,0,0.0,0.0,32,0.00,,,0.00,WUHU216HW,2013-05-19 11:03:00,
2013-05-19 04:04:00,59.9,29.9,29.87,North,0,0.0,0.0,32,0.00,,,0.00,WUHU216HW,2013-05-19 11:04:00,
2013-05-19 04:07:00,59.8,30.4,29.87,North,0,0.0,0.0,33,0.00,,,0.00,WUHU216HW,2013-05-19 11:07:00,
2013-05-19 04:08:00,59.8,30.4,29.87,North,0,0.0,0.0,33,0.00,,,0.00,WUHU216HW,2013-05-19 11:08:00,
2013-05-19 04:10:00,59.8,29.7,29.87,North,0,0.0,0.0,32,0.00,,,0.00,WUHU216HW,2013-05-19 11:10:00,
2013-05-19 04:12:00,59.9,29.9,29.87,North,0,0.0,0.0,32,0.00,,,0.00,WUHU216HW,2013-05-19 11:12:00,
2013-05-19 04:13:00,59.8,30.4,29.87,North,0,0.0,0.0,33,0.00,,,0.00,WUHU216HW,2013-05-19 11:13:00,
2013-05-19 04:14:00,59.8,30.4,29.87,North,0,0.0,0.0,33,0.00,,,0.00,WUHU216HW,2013-05-19 11:14:00,
2013-05-19 04:15:00,59.8,30.4,29.87,North,0,0.0,0.0,33,0.00,,,0.00,WUHU216HW,2013-05-19 11:15:00,
2013-05-19 04:17:00,59.4,30.9,29.87,North,0,0.0,0.0,34,0.00,,,0.00,WUHU216HW,2013-05-19 11:17:00,
2013-05-19 04:19:00,59.4,30.9,29.87,North,0,0.0,0.0,34,0.00,,,0.00,WUHU216HW,2013-05-19 11:19:00,
2013-05-19 04:20:00,59.6,31.0,29.87,North,0,0.0,0.0,34,0.00,,,0.00,WUHU216HW,2013-05-19 11:20:00,
2013-05-19 04:21:00,59.6,30.2,29.87,North,0,0.0,0.0,33,0.00,,,0.00,WUHU216HW,2013-05-19 11:21:00,
2013-05-19 04:23:00,59.6,30.2,29.87,North,0,0.0,0.0,33,0.00,,,0.00,WUHU216HW,2013-05-19 11:23:00,
2013-05-19 04:25:00,59.4,30.9,29.87,North,0,0.0,0.0,34,0.00,,,0.00,WUHU216HW,2013-05-19 11:25:00,
2013-05-19 04:26:00,59.4,30.9,29.87,North,0,0.0,0.0,34,0.00,,,0.00,WUHU216HW,2013-05-19 11:26:00,
2013-05-19 04:27:00,59.4,30.2,29.87,North,0,0.0,0.0,33,0.00,,,0.00,WUHU216HW,2013-05-19 11:27:00,
2013-05-19 04:28:00,59.2,30.0,29.87,North,0,0.0,0.0,33,0.00,,,0.00,WUHU216HW,2013-05-19 11:28:00,
2013-05-19 04:31:00,59.0,29.8,29.87,North,0,0.0,0.0,33,0.00,,,0.00,WUHU216HW,2013-05-19 11:31:00,
2013-05-19 04:33:00,59.0,29.8,29.87,North,0,0.0,0.0,33,0.00,,,0.00,WUHU216HW,2013-05-19 11:33:00,
2013-05-19 04:35:00,59.0,29.8,29.87,North,0,0.0,0.0,33,0.00,,,0.00,WUHU216HW,2013-05-19 11:35:00,
2013-05-19 04:36:00,58.9,29.7,29.87,North,0,0.0,0.0,33,0.00,,,0.00,WUHU216HW,2013-05-19 11:36:00,
2013-05-19 04:38:00,58.9,29.7,29.87,North,0,0.0,0.0,33,0.00,,,0.00,WUHU216HW,2013-05-19 11:38:00,
2013-05-19 04:39:00,58.9,29.7,29.87,North,0,0.0,0.0,33,0.00,,,0.00,WUHU216HW,2013-05-19 11:39:00,
2013-05-19 04:40:00,58.9,29.7,29.87,North,0,0.0,0.0,33,0.00,,,0.00,WUHU216HW,2013-05-19 11:40:00,
2013-05-19 04:42:00,58.7,30.3,29.87,North,0,0.0,0.0,34,0.00,,,0.00,WUHU216HW,2013-05-19 11:42:00,
2013-05-19 04:43:00,58.7,30.3,29.87,North,0,0.0,0.0,34,0.00,,,0.00,WUHU216HW,2013-05-19 11:43:00,
2013-05-19 04:44:00,58.5,30.8,29.87,North,0,0.0,0.0,35,0.00,,,0.00,WUHU216HW,2013-05-19 11:44:00,
2013-05-19 04:45:00,58.5,31.4,29.87,North,0,0.0,0.0,36,0.00,,,0.00,WUHU216HW,2013-05-19 11:45:00,
2013-05-19 04:48:00,58.7,30.3,29.87,North,0,0.0,0.0,34,0.00,,,0.00,WUHU216HW,2013-05-19 11:48:00,
2013-05-19 04:49:00,58.7,30.3,29.87,North,0,0.0,0.0,34,0.00,,,0.00,WUHU216HW,2013-05-19 11:49:00,
2013-05-19 04:50:00,58.9,30.3,29.87,North,0,0.0,0.0,34,0.00,,,0.00,WUHU216HW,2013-05-19 11:50:00,
2013-05-19 04:54:00,58.9,30.3,29.87,North,0,0.0,0.0,34,0.00,,,0.00,WUHU216HW,2013-05-19 11:54:00,
2013-05-19 04:55:00,58.9,30.3,29.87,North,0,0.0,0.0,34,0.00,,,0.00,WUHU216HW,2013-05-19 11:55:00,
2013-05-19 04:56:00,58.9,30.3,29.87,North,0,0.0,0.0,34,0.00,,,0.00,WUHU216HW,2013-05-19 11:56:00,
2013-05-19 04:57:00,58.9,30.3,29.87,North,0,0.0,0.0,34,0.00,,,0.00,WUHU216HW,2013-05-19 11:57:00,
2013-05-19 05:00:00,58.7,30.3,29.87,North,0,0.0,0.0,34,0.00,,,0.00,WUHU216HW,2013-05-19 12:00:00,
2013-05-19 05:02:00,58.7,29.5,29.87,North,0,0.0,0.0,33,0.00,,,0.00,WUHU216HW,2013-05-19 12:02:00,
2013-05-19 05:03:00,58.7,29.5,29.87,North,0,0.0,0.0,33,0.00,,,0.00,WUHU216HW,2013-05-19 12:03:00,
2013-05-19 05:05:00,58.7,30.3,29.87,North,0,0.0,0.0,34,0.00,,,0.00,WUHU216HW,2013-05-19 12:05:00,
2013-05-19 05:06:00,58.7,30.3,29.87,North,0,0.0,0.0,34,0.00,,,0.00,WUHU216HW,2013-05-19 12:06:00,
2013-05-19 05:07:00,58.7,30.3,29.87,North,0,0.0,0.0,34,0.00,,,0.00,WUHU216HW,2013-05-19 12:07:00,
2013-05-19 05:08:00,58.7,30.3,29.87,North,0,0.0,0.0,34,0.00,,,0.00,WUHU216HW,2013-05-19 12:08:00,
2013-05-19 05:09:00,58.7,30.3,29.87,North,0,0.0,0.0,34,0.00,,,0.00,WUHU216HW,2013-05-19 12:09:00,
2013-05-19 05:12:00,58.5,30.1,29.87,North,0,0.0,0.0,34,0.00,,,0.00,WUHU216HW,2013-05-19 12:12:00,
2013-05-19 05:13:00,58.5,30.1,29.87,North,0,0.0,0.0,34,0.00,,,0.00,WUHU216HW,2013-05-19 12:13:00,
2013-05-19 05:16:00,58.3,29.9,29.87,North,0,0.0,0.0,34,0.00,,,0.00,WUHU216HW,2013-05-19 12:16:00,
2013-05-19 05:17:00,58.1,29.7,29.87,North,0,0.0,0.0,34,0.00,,,0.00,WUHU216HW,2013-05-19 12:17:00,
2013-05-19 05:18:00,58.1,29.7,29.88,North,0,0.0,0.0,34,0.00,,,0.00,WUHU216HW,2013-05-19 12:18:00,
2013-05-19 05:19:00,58.0,29.5,29.88,North,0,0.0,0.0,34,0.00,,,0.00,WUHU216HW,2013-05-19 12:19:00,
2013-05-19 05:22:00,58.0,29.5,29.88,North,0,0.0,0.0,34,0.00,,,0.00,WUHU216HW,2013-05-19 12:22:00,
2013-05-19 05:23:00,58.0,29.5,29.88,North,0,0.0,0.0,34,0.00,,,0.00,WUHU216HW,2013-05-19 12:23:00,
2013-05-19 05:24:00,57.8,30.1,29.88,North,0,0.0,0.0,35,0.00,,,0.00,WUHU216HW,2013-05-19 12:24:00,
2013-05-19 05:25:00,57.8,30.1,29.88,North,0,0.0,0.0,35,0.00,,,0.00,WUHU216HW,2013-05-19 12:25:00,
2013-05-19 05:28:00,57.4,30.5,29.88,North,0,0.0,0.0,36,0.00,,,0.00,WUHU216HW,2013-05-19 12:28:00,
2013-05-19 05:29:00,57.2,31.1,29.88,North,0,0.0,0.0,37,0.00,,,0.00,WUHU216HW,2013-05-19 12:29:00,
2013-05-19 05:30:00,57.2,31.1,29.88,North,0,0.0,0.0,37,0.00,,,0.00,WUHU216HW,2013-05-19 12:30:00,
2013-05-19 05:31:00,57.1,30.9,29.88,North,0,0.0,0.0,37,0.00,,,0.00,WUHU216HW,2013-05-19 12:31:00,
2013-05-19 05:33:00,57.1,30.9,29.88,North,0,0.0,0.0,37,0.00,,,0.00,WUHU216HW,2013-05-19 12:33:00,
2013-05-19 05:34:00,57.1,30.9,29.88,North,0,0.0,0.0,37,0.00,,,0.00,WUHU216HW,2013-05-19 12:34:00,
2013-05-19 05:35:00,57.1,30.2,29.88,North,0,0.0,0.0,36,0.00,,,0.00,WUHU216HW,2013-05-19 12:35:00,
2013-05-19 05:36:00,56.9,30.0,29.88,North,0,0.0,0.0,36,0.00,,,0.00,WUHU216HW,2013-05-19 12:36:00,
2013-05-19 05:39:00,56.9,30.7,29.88,North,0,0.0,0.0,37,0.00,,,0.00,WUHU216HW,2013-05-19 12:39:00,
2013-05-19 05:40:00,56.9,30.7,29.88,North,0,0.0,0.0,37,0.00,,,0.00,WUHU216HW,2013-05-19 12:40:00,
2013-05-19 05:41:00,57.1,30.9,29.88,North,0,0.0,0.0,37,0.00,,,0.00,WUHU216HW,2013-05-19 12:41:00,
2013-05-19 05:42:00,57.1,30.9,29.88,North,0,0.0,0.0,37,0.00,,,0.00,WUHU216HW,2013-05-19 12:42:00,
2013-05-19 05:45:00,57.2,31.1,29.88,North,0,0.0,0.0,37,0.00,,,0.00,WUHU216HW,2013-05-19 12:45:00,
2013-05-19 05:46:00,57.2,31.1,29.88,North,0,0.0,0.0,37,0.00,,,0.00,WUHU216HW,2013-05-19 12:46:00,
2013-05-19 05:47:00,57.2,31.1,29.88,North,0,0.0,0.0,37,0.00,,,0.00,WUHU216HW,2013-05-19 12:47:00,
2013-05-19 05:48:00,57.2,31.1,29.88,North,0,0.0,0.0,37,0.00,,,0.00,WUHU216HW,2013-05-19 12:48:00,
2013-05-19 05:50:00,57.6,31.3,29.88,North,0,0.0,0.0,37,0.00,,,0.00,WUHU216HW,2013-05-19 12:50:00,
2013-05-19 05:51:00,57.8,31.5,29.88,North,0,0.0,0.0,37,0.00,,,0.00,WUHU216HW,2013-05-19 12:51:00,
2013-05-19 05:53:00,57.8,31.5,29.88,North,0,0.0,0.0,37,0.00,,,0.00,WUHU216HW,2013-05-19 12:53:00,
2013-05-19 05:54:00,58.0,31.7,29.88,North,0,0.0,0.0,37,0.00,,,0.00,WUHU216HW,2013-05-19 12:54:00,
2013-05-19 05:57:00,58.3,32.0,29.88,North,0,0.0,0.0,37,0.00,,,0.00,WUHU216HW,2013-05-19 12:57:00,
2013-05-19 05:58:00,58.5,32.1,29.88,North,0,0.0,0.0,37,0.00,,,0.00,WUHU216HW,2013-05-19 12:58:00,
2013-05-19 05:59:00,58.7,32.3,29.88,North,0,0.0,0.0,37,0.00,,,0.00,WUHU216HW,2013-05-19 12:59:00,
2013-05-19 06:00:00,58.7,32.3,29.88,North,0,0.0,0.0,37,0.00,,,0.00,WUHU216HW,2013-05-19 13:00:00,
2013-05-19 06:03:00,59.4,32.9,29.88,North,0,0.0,0.0,37,0.00,,,0.00,WUHU216HW,2013-05-19 13:03:00,
2013-05-19 06:04:00,59.4,32.2,29.88,North,0,0.0,0.0,36,0.00,,,0.00,WUHU216HW,2013-05-19 13:04:00,
2013-05-19 06:06:00,59.8,32.6,29.88,North,0,0.0,0.0,36,0.00,,,0.00,WUHU216HW,2013-05-19 13:06:00,
2013-05-19 06:09:00,60.3,33.0,29.88,North,0,0.0,0.0,36,0.00,,,0.00,WUHU216HW,2013-05-19 13:09:00,
2013-05-19 06:10:00,60.3,33.0,29.88,North,0,0.0,0.0,36,0.00,,,0.00,WUHU216HW,2013-05-19 13:10:00,
2013-05-19 06:11:00,60.5,33.2,29.88,North,0,0.0,0.0,36,0.00,,,0.00,WUHU216HW,2013-05-19 13:11:00,
2013-05-19 06:12:00,60.7,33.3,29.89,North,0,0.0,0.0,36,0.00,,,0.00,WUHU216HW,2013-05-19 13:12:00,
2013-05-19 06:14:00,60.8,32.8,29.89,North,0,0.0,0.0,35,0.00,,,0.00,WUHU216HW,2013-05-19 13:14:00,
2013-05-19 06:16:00,61.0,33.0,29.88,North,0,0.0,0.0,35,0.00,,,0.00,WUHU216HW,2013-05-19 13:16:00,
2013-05-19 06:17:00,61.4,32.5,29.89,North,0,0.0,0.0,34,0.00,,,0.00,WUHU216HW,2013-05-19 13:17:00,
2013-05-19 06:19:00,61.7,32.9,29.89,North,0,0.0,0.0,34,0.00,,,0.00,WUHU216HW,2013-05-19 13:19:00,
2013-05-19 06:20:00,61.7,32.9,29.89,North,0,0.0,0.0,34,0.00,,,0.00,WUHU216HW,2013-05-19 13:20:00,
2013-05-19 06:21:00,61.7,32.9,29.89,North,0,0.0,0.0,34,0.00,,,0.00,WUHU216HW,2013-05-19 13:21:00,
2013-05-19 06:23:00,62.1,33.2,29.89,North,0,0.0,0.0,34,0.00,,,0.00,WUHU216HW,2013-05-19 13:23:00,
2013-05-19 06:24:00,62.3,33.3,29.89,North,0,0.0,0.0,34,0.00,,,0.00,WUHU216HW,2013-05-19 13:24:00,
2013-05-19 06:26:00,62.6,33.7,29.89,North,0,0.0,0.0,34,0.00,,,0.00,WUHU216HW,2013-05-19 13:26:00,
2013-05-19 06:28:00,63.0,34.0,29.89,North,0,0.0,0.0,34,0.00,,,0.00,WUHU216HW,2013-05-19 13:28:00,
2013-05-19 06:29:00,63.0,34.0,29.89,North,0,0.0,0.0,34,0.00,,,0.00,WUHU216HW,2013-05-19 13:29:00,
2013-05-19 06:30:00,63.4,34.3,29.89,North,0,0.0,0.0,34,0.00,,,0.00,WUHU216HW,2013-05-19 13:30:00,
2013-05-19 06:31:00,63.4,34.3,29.89,North,0,0.0,0.0,34,0.00,,,0.00,WUHU216HW,2013-05-19 13:31:00,
2013-05-19 06:32:00,63.4,34.3,29.89,North,0,0.0,0.0,34,0.00,,,0.00,WUHU216HW,2013-05-19 13:32:00,
2013-05-19 06:34:00,63.7,34.7,29.89,North,0,0.0,0.0,34,0.00,,,0.00,WUHU216HW,2013-05-19 13:34:00,
2013-05-19 06:35:00,63.9,34.8,29.89,North,0,0.0,0.0,34,0.00,,,0.00,WUHU216HW,2013-05-19 13:35:00,
2013-05-19 06:36:00,63.9,34.8,29.89,North,0,0.0,0.0,34,0.00,,,0.00,WUHU216HW,2013-05-19 13:36:00,
2013-05-19 06:37:00,64.1,34.9,29.89,North,0,0.0,0.0,34,0.00,,,0.00,WUHU216HW,2013-05-19 13:37:00,
2013-05-19 06:40:00,64.4,34.6,29.89,North,0,0.0,0.0,33,0.00,,,0.00,WUHU216HW,2013-05-19 13:40:00,
2013-05-19 06:41:00,64.4,34.6,29.89,North,0,0.0,0.0,33,0.00,,,0.00,WUHU216HW,2013-05-19 13:41:00,
2013-05-19 06:42:00,64.6,34.8,29.89,North,0,0.0,0.0,33,0.00,,,0.00,WUHU216HW,2013-05-19 13:42:00,
2013-05-19 06:43:00,64.8,34.9,29.89,North,0,0.0,0.0,33,0.00,,,0.00,WUHU216HW,2013-05-19 13:43:00,
2013-05-19 06:46:00,65.2,35.9,29.89,North,0,0.0,0.0,34,0.00,,,0.00,WUHU216HW,2013-05-19 13:46:00,
2013-05-19 06:47:00,65.2,35.9,29.89,North,0,0.0,0.0,34,0.00,,,0.00,WUHU216HW,2013-05-19 13:47:00,
2013-05-19 06:50:00,65.5,36.3,29.89,North,0,0.0,0.0,34,0.00,,,0.00,WUHU216HW,2013-05-19 13:50:00,
2013-05-19 06:51:00,65.7,36.5,29.89,North,0,0.0,0.0,34,0.00,,,0.00,WUHU216HW,2013-05-19 13:51:00,
2013-05-19 06:52:00,65.7,36.5,29.89,North,0,0.0,0.0,34,0.00,,,0.00,WUHU216HW,2013-05-19 13:52:00,
2013-05-19 06:53:00,65.7,36.5,29.89,North,0,0.0,0.0,34,0.00,,,0.00,WUHU216HW,2013-05-19 13:53:00,
2013-05-19 06:55:00,65.9,37.3,29.89,North,0,0.0,0.0,35,0.00,,,0.00,WUHU216HW,2013-05-19 13:55:00,
2013-05-19 06:56:00,66.2,36.9,29.90,North,0,0.0,0.0,34,0.00,,,0.00,WUHU216HW,2013-05-19 13:56:00,
2013-05-19 06:57:00,66.2,36.9,29.90,North,0,0.0,0.0,34,0.00,,,0.00,WUHU216HW,2013-05-19 13:57:00,
2013-05-19 06:58:00,66.2,36.9,29.90,North,0,0.0,0.0,34,0.00,,,0.00,WUHU216HW,2013-05-19 13:58:00,
2013-05-19 07:01:00,66.4,37.1,29.90,North,0,0.0,0.0,34,0.00,,,0.00,WUHU216HW,2013-05-19 14:01:00,
2013-05-19 07:02:00,66.6,36.5,29.90,North,0,0.0,0.0,33,0.00,,,0.00,WUHU216HW,2013-05-19 14:02:00,
2013-05-19 07:03:00,66.6,36.5,29.90,North,0,0.0,0.0,33,0.00,,,0.00,WUHU216HW,2013-05-19 14:03:00,
2013-05-19 07:04:00,66.8,36.6,29.90,North,0,0.0,0.0,33,0.00,,,0.00,WUHU216HW,2013-05-19 14:04:00,
2013-05-19 07:05:00,66.8,36.6,29.90,North,0,0.0,0.0,33,0.00,,,0.00,WUHU216HW,2013-05-19 14:05:00,
2013-05-19 07:06:00,66.8,36.6,29.90,North,0,0.0,0.0,33,0.00,,,0.00,WUHU216HW,2013-05-19 14:06:00,
2013-05-19 07:09:00,67.1,37.6,29.90,North,0,0.0,0.0,34,0.00,,,0.00,WUHU216HW,2013-05-19 14:09:00,
2013-05-19 07:10:00,67.3,37.8,29.89,North,0,0.0,0.0,34,0.00,,,0.00,WUHU216HW,2013-05-19 14:10:00,
2013-05-19 07:11:00,67.3,37.8,29.89,North,0,0.0,0.0,34,0.00,,,0.00,WUHU216HW,2013-05-19 14:11:00,
2013-05-19 07:12:00,67.3,37.8,29.89,North,0,0.0,0.0,34,0.00,,,0.00,WUHU216HW,2013-05-19 14:12:00,
2013-05-19 07:15:00,67.9,37.5,29.90,North,0,0.0,0.0,33,0.00,,,0.00,WUHU216HW,2013-05-19 14:15:00,
2013-05-19 07:16:00,68.0,36.9,29.90,North,0,0.0,0.0,32,0.00,,,0.00,WUHU216HW,2013-05-19 14:16:00,
2013-05-19 07:17:00,68.4,37.3,29.90,North,0,0.0,0.0,32,0.00,,,0.00,WUHU216HW,2013-05-19 14:17:00,
2013-05-19 07:20:00,68.6,38.2,29.90,North,0,0.0,0.0,33,0.00,,,0.00,WUHU216HW,2013-05-19 14:20:00,
2013-05-19 07:21:00,68.9,37.7,29.90,North,0,0.0,0.0,32,0.00,,,0.00,WUHU216HW,2013-05-19 14:21:00,
2013-05-19 07:22:00,69.1,37.9,29.90,North,0,0.0,0.0,32,0.00,,,0.00,WUHU216HW,2013-05-19 14:22:00,
2013-05-19 07:23:00,69.1,37.9,29.90,North,0,0.0,0.0,32,0.00,,,0.00,WUHU216HW,2013-05-19 14:23:00,
2013-05-19 07:24:00,69.3,37.4,29.90,North,0,0.0,0.0,31,0.00,,,0.00,WUHU216HW,2013-05-19 14:24:00,
2013-05-19 07:25:00,69.3,37.4,29.90,North,0,0.0,0.0,31,0.00,,,0.00,WUHU216HW,2013-05-19 14:25:00,
2013-05-19 07:27:00,69.3,36.6,29.90,North,0,0.0,0.0,30,0.00,,,0.00,WUHU216HW,2013-05-19 14:27:00,
2013-05-19 07:28:00,69.5,36.7,29.90,North,0,0.0,0.0,30,0.00,,,0.00,WUHU216HW,2013-05-19 14:28:00,
2013-05-19 07:30:00,69.5,36.7,29.90,North,0,0.0,0.0,30,0.00,,,0.00,WUHU216HW,2013-05-19 14:30:00,
2013-05-19 07:32:00,69.5,36.7,29.89,North,0,0.0,0.0,30,0.00,,,0.00,WUHU216HW,2013-05-19 14:32:00,
2013-05-19 07:33:00,69.5,36.7,29.89,North,0,0.0,0.0,30,0.00,,,0.00,WUHU216HW,2013-05-19 14:33:00,
2013-05-19 07:34:00,69.5,36.7,29.89,North,0,0.0,0.0,30,0.00,,,0.00,WUHU216HW,2013-05-19 14:34:00,
2013-05-19 07:36:00,69.5,37.5,29.90,North,0,0.0,0.0,31,0.00,,,0.00,WUHU216HW,2013-05-19 14:36:00,
2013-05-19 07:37:00,69.7,36.9,29.90,North,0,0.0,0.0,30,0.00,,,0.00,WUHU216HW,2013-05-19 14:37:00,
2013-05-19 07:38:00,69.7,36.9,29.90,North,0,0.0,0.0,30,0.00,,,0.00,WUHU216HW,2013-05-19 14:38:00,
2013-05-19 07:40:00,69.8,37.1,29.90,North,0,0.0,0.0,30,0.00,,,0.00,WUHU216HW,2013-05-19 14:40:00,
2013-05-19 07:41:00,69.8,37.1,29.90,North,0,0.0,0.0,30,0.00,,,0.00,WUHU216HW,2013-05-19 14:41:00,
2013-05-19 07:43:00,69.8,37.1,29.90,North,0,0.0,0.0,30,0.00,,,0.00,WUHU216HW,2013-05-19 14:43:00,
2013-05-19 07:45:00,69.8,37.1,29.90,North,0,0.0,0.0,30,0.00,,,0.00,WUHU216HW,2013-05-19 14:45:00,
2013-05-19 07:47:00,69.8,37.1,29.89,North,0,0.0,0.0,30,0.00,,,0.00,WUHU216HW,2013-05-19 14:47:00,
2013-05-19 07:48:00,69.8,36.1,29.89,North,0,0.0,0.0,29,0.00,,,0.00,WUHU216HW,2013-05-19 14:48:00,
2013-05-19 07:50:00,70.0,36.3,29.89,North,0,0.0,0.0,29,0.00,,,0.00,WUHU216HW,2013-05-19 14:50:00,
2013-05-19 07:52:00,70.0,36.3,29.90,North,0,0.0,0.0,29,0.00,,,0.00,WUHU216HW,2013-05-19 14:52:00,
2013-05-19 07:53:00,70.0,36.3,29.89,North,0,0.0,0.0,29,0.00,,,0.00,WUHU216HW,2013-05-19 14:53:00,
2013-05-19 07:54:00,70.0,36.3,29.89,North,0,0.0,0.0,29,0.00,,,0.00,WUHU216HW,2013-05-19 14:54:00,
2013-05-19 07:57:00,70.2,36.4,29.90,North,0,0.0,0.0,29,0.00,,,0.00,WUHU216HW,2013-05-19 14:57:00,
2013-05-19 07:58:00,70.2,36.4,29.90,North,0,0.0,0.0,29,0.00,,,0.00,WUHU216HW,2013-05-19 14:58:00,
2013-05-19 07:59:00,70.2,36.4,29.90,North,0,0.0,0.0,29,0.00,,,0.00,WUHU216HW,2013-05-19 14:59:00,
2013-05-19 08:01:00,70.2,36.4,29.90,North,0,0.0,0.0,29,0.00,,,0.00,WUHU216HW,2013-05-19 15:01:00,
2013-05-19 08:04:00,70.6,36.7,29.89,North,0,0.0,0.0,29,0.00,,,0.00,WUHU216HW,2013-05-19 15:04:00,
2013-05-19 08:05:00,70.6,36.7,29.89,North,0,0.0,0.0,29,0.00,,,0.00,WUHU216HW,2013-05-19 15:05:00,
2013-05-19 08:07:00,70.6,36.7,29.90,North,0,0.0,0.0,29,0.00,,,0.00,WUHU216HW,2013-05-19 15:07:00,
2013-05-19 08:09:00,70.7,36.9,29.90,North,0,0.0,0.0,29,0.00,,,0.00,WUHU216HW,2013-05-19 15:09:00,
2013-05-19 08:10:00,70.7,36.9,29.90,North,0,0.0,0.0,29,0.00,,,0.00,WUHU216HW,2013-05-19 15:10:00,
2013-05-19 08:12:00,70.9,37.0,29.90,North,0,0.0,0.0,29,0.00,,,0.00,WUHU216HW,2013-05-19 15:12:00,
2013-05-19 08:14:00,71.1,36.2,29.90,North,0,0.0,0.0,28,0.00,,,0.00,WUHU216HW,2013-05-19 15:14:00,
2013-05-19 08:15:00,71.1,36.2,29.90,North,0,0.0,0.0,28,0.00,,,0.00,WUHU216HW,2013-05-19 15:15:00,
2013-05-19 08:16:00,71.3,36.4,29.90,North,0,0.0,0.0,28,0.00,,,0.00,WUHU216HW,2013-05-19 15:16:00,
2013-05-19 08:17:00,71.3,36.4,29.90,North,0,0.0,0.0,28,0.00,,,0.00,WUHU216HW,2013-05-19 15:17:00,
2013-05-19 08:18:00,71.5,36.5,29.90,North,0,0.0,0.0,28,0.00,,,0.00,WUHU216HW,2013-05-19 15:18:00,
2013-05-19 08:20:00,71.5,36.5,29.90,North,0,0.0,0.0,28,0.00,,,0.00,WUHU216HW,2013-05-19 15:20:00,
2013-05-19 08:21:00,71.6,36.6,29.89,North,0,0.0,0.0,28,0.00,,,0.00,WUHU216HW,2013-05-19 15:21:00,
2013-05-19 08:22:00,71.6,36.6,29.89,North,0,0.0,0.0,28,0.00,,,0.00,WUHU216HW,2013-05-19 15:22:00,
2013-05-19 08:23:00,71.6,36.6,29.90,North,0,0.0,0.0,28,0.00,,,0.00,WUHU216HW,2013-05-19 15:23:00,
2013-05-19 08:25:00,71.6,36.6,29.90,North,0,0.0,0.0,28,0.00,,,0.00,WUHU216HW,2013-05-19 15:25:00,
2013-05-19 08:27:00,71.8,36.8,29.90,North,0,0.0,0.0,28,0.00,,,0.00,WUHU216HW,2013-05-19 15:27:00,
2013-05-19 08:28:00,71.8,36.8,29.90,North,0,0.0,0.0,28,0.00,,,0.00,WUHU216HW,2013-05-19 15:28:00,
2013-05-19 08:29:00,71.8,36.8,29.90,North,0,0.0,0.0,28,0.00,,,0.00,WUHU216HW,2013-05-19 15:29:00,
2013-05-19 08:30:00,72.2,35.0,29.90,North,0,0.0,0.0,26,0.00,,,0.00,WUHU216HW,2013-05-19 15:30:00,
2013-05-19 08:31:00,72.4,35.2,29.90,North,0,0.0,0.0,26,0.00,,,0.00,WUHU216HW,2013-05-19 15:31:00,
2013-05-19 08:33:00,72.4,35.2,29.90,North,0,0.0,0.0,26,0.00,,,0.00,WUHU216HW,2013-05-19 15:33:00,
2013-05-19 08:35:00,72.4,35.2,29.90,North,0,0.0,0.0,26,0.00,,,0.00,WUHU216HW,2013-05-19 15:35:00,
2013-05-19 08:36:00,72.4,35.2,29.89,North,0,0.0,0.0,26,0.00,,,0.00,WUHU216HW,2013-05-19 15:36:00,
2013-05-19 08:38:00,72.4,35.2,29.89,North,0,0.0,0.0,26,0.00,,,0.00,WUHU216HW,2013-05-19 15:38:00,
2013-05-19 08:39:00,72.4,35.2,29.89,North,0,0.0,0.0,26,0.00,,,0.00,WUHU216HW,2013-05-19 15:39:00,
2013-05-19 08:41:00,72.5,35.4,29.89,North,0,0.0,0.0,26,0.00,,,0.00,WUHU216HW,2013-05-19 15:41:00,
2013-05-19 08:42:00,72.7,34.5,29.89,North,0,0.0,0.0,25,0.00,,,0.00,WUHU216HW,2013-05-19 15:42:00,
2013-05-19 08:44:00,72.7,34.5,29.89,North,0,0.0,0.0,25,0.00,,,0.00,WUHU216HW,2013-05-19 15:44:00,
2013-05-19 08:46:00,72.7,34.5,29.89,North,0,0.0,0.0,25,0.00,,,0.00,WUHU216HW,2013-05-19 15:46:00,
2013-05-19 08:47:00,73.1,34.8,29.89,North,0,0.0,0.0,25,0.00,,,0.00,WUHU216HW,2013-05-19 15:47:00,
2013-05-19 08:48:00,73.1,34.8,29.89,North,0,0.0,0.0,25,0.00,,,0.00,WUHU216HW,2013-05-19 15:48:00,
2013-05-19 08:51:00,73.1,34.8,29.89,North,0,0.0,0.0,25,0.00,,,0.00,WUHU216HW,2013-05-19 15:51:00,
2013-05-19 08:53:00,73.3,34.9,29.89,North,0,0.0,0.0,25,0.00,,,0.00,WUHU216HW,2013-05-19 15:53:00,
2013-05-19 08:54:00,73.4,35.1,29.89,North,0,0.0,0.0,25,0.00,,,0.00,WUHU216HW,2013-05-19 15:54:00,
2013-05-19 08:56:00,73.6,35.3,29.89,North,0,0.0,0.0,25,0.00,,,0.00,WUHU216HW,2013-05-19 15:56:00,
2013-05-19 08:57:00,73.8,35.4,29.89,North,0,0.0,0.0,25,0.00,,,0.00,WUHU216HW,2013-05-19 15:57:00,
2013-05-19 08:58:00,73.8,35.4,29.89,North,0,0.0,0.0,25,0.00,,,0.00,WUHU216HW,2013-05-19 15:58:00,
2013-05-19 09:00:00,73.8,35.4,29.89,North,0,0.0,0.0,25,0.00,,,0.00,WUHU216HW,2013-05-19 16:00:00,
2013-05-19 09:01:00,73.8,35.4,29.89,North,0,0.0,0.0,25,0.00,,,0.00,WUHU216HW,2013-05-19 16:01:00,
2013-05-19 09:02:00,73.8,35.4,29.89,North,0,0.0,0.0,25,0.00,,,0.00,WUHU216HW,2013-05-19 16:02:00,
2013-05-19 09:03:00,73.8,35.4,29.89,North,0,0.0,0.0,25,0.00,,,0.00,WUHU216HW,2013-05-19 16:03:00,
2013-05-19 09:04:00,73.8,35.4,29.89,North,0,0.0,0.0,25,0.00,,,0.00,WUHU216HW,2013-05-19 16:04:00,
2013-05-19 09:06:00,73.8,35.4,29.89,North,0,0.0,0.0,25,0.00,,,0.00,WUHU216HW,2013-05-19 16:06:00,
2013-05-19 09:08:00,74.0,35.6,29.89,North,0,0.0,0.0,25,0.00,,,0.00,WUHU216HW,2013-05-19 16:08:00,
2013-05-19 09:09:00,74.0,35.6,29.89,North,0,0.0,0.0,25,0.00,,,0.00,WUHU216HW,2013-05-19 16:09:00,
2013-05-19 09:11:00,74.0,35.6,29.89,North,0,0.0,0.0,25,0.00,,,0.00,WUHU216HW,2013-05-19 16:11:00,
2013-05-19 09:14:00,74.0,35.6,29.89,North,0,0.0,0.0,25,0.00,,,0.00,WUHU216HW,2013-05-19 16:14:00,
2013-05-19 09:15:00,74.0,35.6,29.89,North,0,0.0,0.0,25,0.00,,,0.00,WUHU216HW,2013-05-19 16:15:00,
2013-05-19 09:16:00,74.0,35.6,29.89,North,0,0.0,0.0,25,0.00,,,0.00,WUHU216HW,2013-05-19 16:16:00,
2013-05-19 09:17:00,74.0,35.6,29.89,North,0,0.0,0.0,25,0.00,,,0.00,WUHU216HW,2013-05-19 16:17:00,
2013-05-19 09:20:00,74.0,35.6,29.89,North,0,0.0,0.0,25,0.00,,,0.00,WUHU216HW,2013-05-19 16:20:00,
2013-05-19 09:21:00,74.2,35.7,29.88,North,0,0.0,0.0,25,0.00,,,0.00,WUHU216HW,2013-05-19 16:21:00,
2013-05-19 09:22:00,74.2,35.7,29.88,North,0,0.0,0.0,25,0.00,,,0.00,WUHU216HW,2013-05-19 16:22:00,
2013-05-19 09:25:00,74.5,36.0,29.88,North,0,0.0,0.0,25,0.00,,,0.00,WUHU216HW,2013-05-19 16:25:00,
2013-05-19 09:26:00,74.7,36.2,29.88,North,0,0.0,0.0,25,0.00,,,0.00,WUHU216HW,2013-05-19 16:26:00,
2013-05-19 09:27:00,74.7,36.2,29.88,North,0,0.0,0.0,25,0.00,,,0.00,WUHU216HW,2013-05-19 16:27:00,
2013-05-19 09:28:00,74.9,36.4,29.88,North,0,0.0,0.0,25,0.00,,,0.00,WUHU216HW,2013-05-19 16:28:00,
2013-05-19 09:32:00,75.1,36.5,29.88,North,0,0.0,0.0,25,0.00,,,0.00,WUHU216HW,2013-05-19 16:32:00,
2013-05-19 09:33:00,75.2,35.7,29.88,North,0,0.0,0.0,24,0.00,,,0.00,WUHU216HW,2013-05-19 16:33:00,
2013-05-19 09:37:00,75.2,36.6,29.88,North,0,0.0,0.0,25,0.00,,,0.00,WUHU216HW,2013-05-19 16:37:00,
2013-05-19 09:38:00,75.4,35.7,29.88,North,0,0.0,0.0,24,0.00,,,0.00,WUHU216HW,2013-05-19 16:38:00,
2013-05-19 09:42:00,75.4,35.7,29.88,North,0,0.0,0.0,24,0.00,,,0.00,WUHU216HW,2013-05-19 16:42:00,
2013-05-19 09:43:00,75.4,35.7,29.88,North,0,0.0,0.0,24,0.00,,,0.00,WUHU216HW,2013-05-19 16:43:00,
2013-05-19 09:44:00,75.6,36.9,29.88,North,0,0.0,0.0,25,0.00,,,0.00,WUHU216HW,2013-05-19 16:44:00,
2013-05-19 09:45:00,75.6,35.9,29.88,North,0,0.0,0.0,24,0.00,,,0.00,WUHU216HW,2013-05-19 16:45:00,
2013-05-19 09:47:00,75.4,36.8,29.88,North,0,0.0,0.0,25,0.00,,,0.00,WUHU216HW,2013-05-19 16:47:00,
2013-05-19 09:48:00,75.4,36.8,29.88,North,0,0.0,0.0,25,0.00,,,0.00,WUHU216HW,2013-05-19 16:48:00,
2013-05-19 09:49:00,75.4,36.8,29.88,North,0,0.0,0.0,25,0.00,,,0.00,WUHU216HW,2013-05-19 16:49:00,
2013-05-19 09:51:00,75.4,36.8,29.88,North,0,0.0,0.0,25,0.00,,,0.00,WUHU216HW,2013-05-19 16:51:00,
2013-05-19 09:53:00,75.6,36.9,29.88,North,0,0.0,0.0,25,0.00,,,0.00,WUHU216HW,2013-05-19 16:53:00,
2013-05-19 09:54:00,75.6,36.9,29.88,North,0,0.0,0.0,25,0.00,,,0.00,WUHU216HW,2013-05-19 16:54:00,
2013-05-19 09:55:00,75.6,36.9,29.88,North,0,0.0,0.0,25,0.00,,,0.00,WUHU216HW,2013-05-19 16:55:00,
2013-05-19 09:57:00,75.8,37.1,29.88,North,0,0.0,0.0,25,0.00,,,0.00,WUHU216HW,2013-05-19 16:57:00,
2013-05-19 09:59:00,76.0,36.2,29.88,North,0,0.0,0.0,24,0.00,,,0.00,WUHU216HW,2013-05-19 16:59:00,
2013-05-19 10:00:00,76.0,36.2,29.88,North,0,0.0,0.0,24,0.00,,,0.00,WUHU216HW,2013-05-19 17:00:00,
2013-05-19 10:03:00,76.3,36.6,29.87,North,0,0.0,0.0,24,0.00,,,0.00,WUHU216HW,2013-05-19 17:03:00,
2013-05-19 10:05:00,76.3,36.6,29.87,North,0,0.0,0.0,24,0.00,,,0.00,WUHU216HW,2013-05-19 17:05:00,
2013-05-19 10:06:00,76.5,36.6,29.87,North,0,0.0,0.0,24,0.00,,,0.00,WUHU216HW,2013-05-19 17:06:00,
2013-05-19 10:09:00,76.9,37.0,29.87,North,0,0.0,0.0,24,0.00,,,0.00,WUHU216HW,2013-05-19 17:09:00,
2013-05-19 10:10:00,76.9,37.0,29.87,North,0,0.0,0.0,24,0.00,,,0.00,WUHU216HW,2013-05-19 17:10:00,
2013-05-19 10:11:00,76.9,37.0,29.87,North,0,0.0,0.0,24,0.00,,,0.00,WUHU216HW,2013-05-19 17:11:00,
2013-05-19 10:15:00,77.0,37.1,29.87,North,0,0.0,0.0,24,0.00,,,0.00,WUHU216HW,2013-05-19 17:15:00,
2013-05-19 10:16:00,77.0,37.1,29.86,North,0,0.0,0.0,24,0.00,,,0.00,WUHU216HW,2013-05-19 17:16:00,
2013-05-19 10:17:00,77.0,37.1,29.86,North,0,0.0,0.0,24,0.00,,,0.00,WUHU216HW,2013-05-19 17:17:00,
2013-05-19 10:18:00,77.2,37.3,29.86,North,0,0.0,0.0,24,0.00,,,0.00,WUHU216HW,2013-05-19 17:18:00,
2013-05-19 10:21:00,77.0,37.1,29.86,North,0,0.0,0.0,24,0.00,,,0.00,WUHU216HW,2013-05-19 17:21:00,
2013-05-19 10:22:00,77.0,37.1,29.86,North,0,0.0,0.0,24,0.00,,,0.00,WUHU216HW,2013-05-19 17:22:00,
2013-05-19 10:23:00,77.0,36.1,29.86,North,0,0.0,0.0,23,0.00,,,0.00,WUHU216HW,2013-05-19 17:23:00,
2013-05-19 10:28:00,77.2,36.2,29.86,North,0,0.0,0.0,23,0.00,,,0.00,WUHU216HW,2013-05-19 17:28:00,
2013-05-19 10:29:00,77.4,36.4,29.86,North,0,0.0,0.0,23,0.00,,,0.00,WUHU216HW,2013-05-19 17:29:00,
2013-05-19 10:33:00,77.4,36.4,29.86,North,0,0.0,0.0,23,0.00,,,0.00,WUHU216HW,2013-05-19 17:33:00,
2013-05-19 10:34:00,77.4,36.4,29.86,North,0,0.0,0.0,23,0.00,,,0.00,WUHU216HW,2013-05-19 17:34:00,
2013-05-19 10:35:00,77.4,36.4,29.86,North,0,0.0,0.0,23,0.00,,,0.00,WUHU216HW,2013-05-19 17:35:00,
2013-05-19 10:39:00,77.4,36.4,29.86,North,0,0.0,0.0,23,0.00,,,0.00,WUHU216HW,2013-05-19 17:39:00,
2013-05-19 10:40:00,77.4,37.5,29.86,North,0,0.0,0.0,24,0.00,,,0.00,WUHU216HW,2013-05-19 17:40:00,
2013-05-19 10:41:00,77.6,36.6,29.86,North,0,0.0,0.0,23,0.00,,,0.00,WUHU216HW,2013-05-19 17:41:00,
2013-05-19 10:45:00,77.8,36.6,29.86,North,0,0.0,0.0,23,0.00,,,0.00,WUHU216HW,2013-05-19 17:45:00,
2013-05-19 10:46:00,77.8,36.6,29.86,North,0,0.0,0.0,23,0.00,,,0.00,WUHU216HW,2013-05-19 17:46:00,
2013-05-19 10:47:00,77.8,35.7,29.86,North,0,0.0,0.0,22,0.00,,,0.00,WUHU216HW,2013-05-19 17:47:00,
2013-05-19 10:51:00,77.8,35.7,29.86,North,0,0.0,0.0,22,0.00,,,0.00,WUHU216HW,2013-05-19 17:51:00,
2013-05-19 10:52:00,77.9,35.7,29.86,North,0,0.0,0.0,22,0.00,,,0.00,WUHU216HW,2013-05-19 17:52:00,
2013-05-19 10:54:00,77.9,35.7,29.86,North,0,0.0,0.0,22,0.00,,,0.00,WUHU216HW,2013-05-19 17:54:00,
2013-05-19 10:57:00,77.9,35.7,29.86,North,0,0.0,0.0,22,0.00,,,0.00,WUHU216HW,2013-05-19 17:57:00,
2013-05-19 10:58:00,78.1,35.9,29.85,North,0,0.0,0.0,22,0.00,,,0.00,WUHU216HW,2013-05-19 17:58:00,
2013-05-19 10:59:00,78.1,35.9,29.85,North,0,0.0,0.0,22,0.00,,,0.00,WUHU216HW,2013-05-19 17:59:00,
2013-05-19 11:01:00,78.1,35.9,29.85,North,0,0.0,0.0,22,0.00,,,0.00,WUHU216HW,2013-05-19 18:01:00,
2013-05-19 11:02:00,78.1,35.9,29.85,North,0,0.0,0.0,22,0.00,,,0.00,WUHU216HW,2013-05-19 18:02:00,
2013-05-19 11:03:00,78.1,35.9,29.85,North,0,0.0,0.0,22,0.00,,,0.00,WUHU216HW,2013-05-19 18:03:00,
2013-05-19 11:06:00,78.3,36.0,29.85,North,0,0.0,0.0,22,0.00,,,0.00,WUHU216HW,2013-05-19 18:06:00,
2013-05-19 11:07:00,78.5,36.2,29.85,North,0,0.0,0.0,22,0.00,,,0.00,WUHU216HW,2013-05-19 18:07:00,
2013-05-19 11:08:00,78.5,36.2,29.85,North,0,0.0,0.0,22,0.00,,,0.00,WUHU216HW,2013-05-19 18:08:00,
2013-05-19 11:10:00,78.8,36.5,29.85,North,0,0.0,0.0,22,0.00,,,0.00,WUHU216HW,2013-05-19 18:10:00,
2013-05-19 11:11:00,78.8,36.5,29.85,North,0,0.0,0.0,22,0.00,,,0.00,WUHU216HW,2013-05-19 18:11:00,
2013-05-19 11:12:00,79.0,36.6,29.85,North,0,0.0,0.0,22,0.00,,,0.00,WUHU216HW,2013-05-19 18:12:00,
2013-05-19 11:13:00,79.2,36.8,29.85,North,0,0.0,0.0,22,0.00,,,0.00,WUHU216HW,2013-05-19 18:13:00,
2013-05-19 11:14:00,79.4,37.0,29.85,North,0,0.0,0.0,22,0.00,,,0.00,WUHU216HW,2013-05-19 18:14:00,
2013-05-19 11:16:00,79.9,36.4,29.84,North,0,0.0,0.0,21,0.00,,,0.00,WUHU216HW,2013-05-19 18:16:00,
2013-05-19 11:17:00,79.9,36.4,29.84,North,0,0.0,0.0,21,0.00,,,0.00,WUHU216HW,2013-05-19 18:17:00,
2013-05-19 11:18:00,79.9,36.4,29.84,North,0,0.0,0.0,21,0.00,,,0.00,WUHU216HW,2013-05-19 18:18:00,
2013-05-19 11:19:00,80.1,36.5,29.84,North,0,0.0,0.0,21,0.00,,,0.00,WUHU216HW,2013-05-19 18:19:00,
2013-05-19 11:22:00,80.3,35.6,29.84,North,0,0.0,0.0,20,0.00,,,0.00,WUHU216HW,2013-05-19 18:22:00,
2013-05-19 11:23:00,80.3,34.0,29.84,North,0,0.0,0.0,19,0.00,,,0.00,WUHU216HW,2013-05-19 18:23:00,
2013-05-19 11:24:00,80.3,34.0,29.84,North,0,0.0,0.0,19,0.00,,,0.00,WUHU216HW,2013-05-19 18:24:00,
2013-05-19 11:25:00,80.3,34.0,29.84,North,0,0.0,0.0,19,0.00,,,0.00,WUHU216HW,2013-05-19 18:25:00,
2013-05-19 11:27:00,80.1,33.9,29.84,North,0,0.0,0.0,19,0.00,,,0.00,WUHU216HW,2013-05-19 18:27:00,
2013-05-19 11:29:00,80.3,35.6,29.83,North,0,0.0,0.0,20,0.00,,,0.00,WUHU216HW,2013-05-19 18:29:00,
2013-05-19 11:30:00,80.3,34.0,29.83,North,0,0.0,0.0,19,0.00,,,0.00,WUHU216HW,2013-05-19 18:30:00,
2013-05-19 11:34:00,80.3,34.0,29.83,North,0,0.0,0.0,19,0.00,,,0.00,WUHU216HW,2013-05-19 18:34:00,
2013-05-19 11:35:00,80.3,34.0,29.83,North,0,0.0,0.0,19,0.00,,,0.00,WUHU216HW,2013-05-19 18:35:00,
2013-05-19 11:37:00,80.5,34.1,29.83,North,0,0.0,0.0,19,0.00,,,0.00,WUHU216HW,2013-05-19 18:37:00,
2013-05-19 11:39:00,80.6,34.3,29.83,North,0,0.0,0.0,19,0.00,,,0.00,WUHU216HW,2013-05-19 18:39:00,
2013-05-19 11:40:00,80.6,34.3,29.83,North,0,0.0,0.0,19,0.00,,,0.00,WUHU216HW,2013-05-19 18:40:00,
2013-05-19 11:43:00,81.2,34.7,29.83,North,0,0.0,0.0,19,0.00,,,0.00,WUHU216HW,2013-05-19 18:43:00,
2013-05-19 11:45:00,81.5,35.0,29.83,North,0,0.0,0.0,19,0.00,,,0.00,WUHU216HW,2013-05-19 18:45:00,
2013-05-19 11:46:00,81.5,35.0,29.83,North,0,0.0,0.0,19,0.00,,,0.00,WUHU216HW,2013-05-19 18:46:00,
2013-05-19 11:49:00,82.1,35.5,29.83,North,0,0.0,0.0,19,0.00,,,0.00,WUHU216HW,2013-05-19 18:49:00,
2013-05-19 11:51:00,82.3,33.9,29.83,North,0,0.0,0.0,18,0.00,,,0.00,WUHU216HW,2013-05-19 18:51:00,
2013-05-19 11:52:00,82.3,33.9,29.83,North,0,0.0,0.0,18,0.00,,,0.00,WUHU216HW,2013-05-19 18:52:00,
2013-05-19 11:56:00,82.3,33.9,29.82,North,0,0.0,0.0,18,0.00,,,0.00,WUHU216HW,2013-05-19 18:56:00,
2013-05-19 11:57:00,82.1,33.8,29.82,North,0,0.0,0.0,18,0.00,,,0.00,WUHU216HW,2013-05-19 18:57:00,
2013-05-19 11:59:00,82.1,35.5,29.82,North,0,0.0,0.0,19,0.00,,,0.00,WUHU216HW,2013-05-19 18:59:00,
2013-05-19 12:00:00,82.1,35.5,29.82,North,0,0.0,0.0,19,0.00,,,0.00,WUHU216HW,2013-05-19 19:00:00,
2013-05-19 12:02:00,82.1,33.8,29.82,North,0,0.0,0.0,18,0.00,,,0.00,WUHU216HW,2013-05-19 19:02:00,
2013-05-19 12:03:00,82.3,33.9,29.82,North,0,0.0,0.0,18,0.00,,,0.00,WUHU216HW,2013-05-19 19:03:00,
2013-05-19 12:05:00,82.3,33.9,29.82,North,0,0.0,0.0,18,0.00,,,0.00,WUHU216HW,2013-05-19 19:05:00,
2013-05-19 12:06:00,82.3,33.9,29.82,North,0,0.0,0.0,18,0.00,,,0.00,WUHU216HW,2013-05-19 19:06:00,
2013-05-19 12:07:00,82.3,33.9,29.82,North,0,0.0,0.0,18,0.00,,,0.00,WUHU216HW,2013-05-19 19:07:00,
2013-05-19 12:08:00,82.3,33.9,29.82,North,0,0.0,0.0,18,0.00,,,0.00,WUHU216HW,2013-05-19 19:08:00,
2013-05-19 12:09:00,82.4,34.0,29.82,North,0,0.0,0.0,18,0.00,,,0.00,WUHU216HW,2013-05-19 19:09:00,
2013-05-19 12:10:00,82.6,34.2,29.82,North,0,0.0,0.0,18,0.00,,,0.00,WUHU216HW,2013-05-19 19:10:00,
2013-05-19 12:11:00,82.6,35.9,29.82,North,0,0.0,0.0,19,0.00,,,0.00,WUHU216HW,2013-05-19 19:11:00,
2013-05-19 12:12:00,82.6,35.9,29.81,North,0,0.0,0.0,19,0.00,,,0.00,WUHU216HW,2013-05-19 19:12:00,
2013-05-19 12:13:00,82.8,36.0,29.81,North,0,0.0,0.0,19,0.00,,,0.00,WUHU216HW,2013-05-19 19:13:00,
2013-05-19 12:14:00,83.0,36.2,29.81,North,0,0.0,0.0,19,0.00,,,0.00,WUHU216HW,2013-05-19 19:14:00,
2013-05-19 12:16:00,83.2,34.7,29.81,North,0,0.0,0.0,18,0.00,,,0.00,WUHU216HW,2013-05-19 19:16:00,
2013-05-19 12:17:00,83.2,34.7,29.81,North,0,0.0,0.0,18,0.00,,,0.00,WUHU216HW,2013-05-19 19:17:00,
2013-05-19 12:18:00,83.2,34.7,29.81,North,0,0.0,0.0,18,0.00,,,0.00,WUHU216HW,2013-05-19 19:18:00,
2013-05-19 12:19:00,83.3,34.7,29.81,North,0,0.0,0.0,18,0.00,,,0.00,WUHU216HW,2013-05-19 19:19:00,
2013-05-19 12:21:00,83.5,34.9,29.81,North,0,0.0,0.0,18,0.00,,,0.00,WUHU216HW,2013-05-19 19:21:00,
2013-05-19 12:24:00,83.7,33.3,29.81,North,0,0.0,0.0,17,0.00,,,0.00,WUHU216HW,2013-05-19 19:24:00,
2013-05-19 12:25:00,83.7,33.3,29.81,North,0,0.0,0.0,17,0.00,,,0.00,WUHU216HW,2013-05-19 19:25:00,
2013-05-19 12:27:00,83.9,33.5,29.81,North,0,0.0,0.0,17,0.00,,,0.00,WUHU216HW,2013-05-19 19:27:00,
2013-05-19 12:29:00,83.9,33.5,29.81,North,0,0.0,0.0,17,0.00,,,0.00,WUHU216HW,2013-05-19 19:29:00,
2013-05-19 12:30:00,83.9,35.2,29.81,North,0,0.0,0.0,18,0.00,,,0.00,WUHU216HW,2013-05-19 19:30:00,
2013-05-19 12:32:00,84.2,33.8,29.81,North,0,0.0,0.0,17,0.00,,,0.00,WUHU216HW,2013-05-19 19:32:00,
2013-05-19 12:33:00,84.2,33.8,29.81,North,0,0.0,0.0,17,0.00,,,0.00,WUHU216HW,2013-05-19 19:33:00,
2013-05-19 12:35:00,84.6,32.3,29.80,North,0,0.0,0.0,16,0.00,,,0.00,WUHU216HW,2013-05-19 19:35:00,
2013-05-19 12:36:00,84.8,32.5,29.80,North,0,0.0,0.0,16,0.00,,,0.00,WUHU216HW,2013-05-19 19:36:00,
2013-05-19 12:38:00,85.0,27.5,29.80,North,0,0.0,0.0,13,0.00,,,0.00,WUHU216HW,2013-05-19 19:38:00,
2013-05-19 12:40:00,85.1,27.6,29.80,North,0,0.0,0.0,13,0.00,,,0.00,WUHU216HW,2013-05-19 19:40:00,
2013-05-19 12:42:00,85.1,27.6,29.80,North,0,0.0,0.0,13,0.00,,,0.00,WUHU216HW,2013-05-19 19:42:00,
2013-05-19 12:43:00,85.1,31.1,29.80,North,0,0.0,0.0,15,0.00,,,0.00,WUHU216HW,2013-05-19 19:43:00,
2013-05-19 12:44:00,85.3,31.2,29.80,North,0,0.0,0.0,15,0.00,,,0.00,WUHU216HW,2013-05-19 19:44:00,
2013-05-19 12:46:00,85.7,28.1,29.80,North,0,0.0,0.0,13,0.00,,,0.00,WUHU216HW,2013-05-19 19:46:00,
2013-05-19 12:49:00,86.0,28.4,29.80,North,0,0.0,0.0,13,0.00,,,0.00,WUHU216HW,2013-05-19 19:49:00,
2013-05-19 12:50:00,86.0,28.4,29.80,North,0,0.0,0.0,13,0.00,,,0.00,WUHU216HW,2013-05-19 19:50:00,
2013-05-19 12:52:00,86.2,28.5,29.80,North,0,0.0,0.0,13,0.00,,,0.00,WUHU216HW,2013-05-19 19:52:00,
2013-05-19 12:54:00,86.6,28.8,29.80,North,0,0.0,0.0,13,0.00,,,0.00,WUHU216HW,2013-05-19 19:54:00,
2013-05-19 12:55:00,86.6,28.8,29.80,North,0,0.0,0.0,13,0.00,,,0.00,WUHU216HW,2013-05-19 19:55:00,
2013-05-19 12:57:00,86.9,29.1,29.79,North,0,0.0,0.0,13,0.00,,,0.00,WUHU216HW,2013-05-19 19:57:00,
2013-05-19 13:00:00,87.1,29.3,29.79,North,0,0.0,0.0,13,0.00,,,0.00,WUHU216HW,2013-05-19 20:00:00,
2013-05-19 13:01:00,87.3,29.4,29.79,North,0,0.0,0.0,13,0.00,,,0.00,WUHU216HW,2013-05-19 20:01:00,
2013-05-19 13:03:00,87.5,29.5,29.79,North,0,0.0,0.0,13,0.00,,,0.00,WUHU216HW,2013-05-19 20:03:00,
2013-05-19 13:05:00,87.8,28.1,29.79,North,0,0.0,0.0,12,0.00,,,0.00,WUHU216HW,2013-05-19 20:05:00,
2013-05-19 13:06:00,87.8,29.9,29.79,North,0,0.0,0.0,13,0.00,,,0.00,WUHU216HW,2013-05-19 20:06:00,
2013-05-19 13:07:00,87.8,29.9,29.79,North,0,0.0,0.0,13,0.00,,,0.00,WUHU216HW,2013-05-19 20:07:00,
2013-05-19 13:08:00,87.8,28.1,29.79,North,0,0.0,0.0,12,0.00,,,0.00,WUHU216HW,2013-05-19 20:08:00,
2013-05-19 13:11:00,88.2,28.4,29.79,North,0,0.0,0.0,12,0.00,,,0.00,WUHU216HW,2013-05-19 20:11:00,
2013-05-19 13:12:00,88.2,26.6,29.79,North,0,0.0,0.0,11,0.00,,,0.00,WUHU216HW,2013-05-19 20:12:00,
2013-05-19 13:13:00,88.0,28.3,29.79,North,0,0.0,0.0,12,0.00,,,0.00,WUHU216HW,2013-05-19 20:13:00,
2013-05-19 13:14:00,88.0,26.6,29.79,North,0,0.0,0.0,11,0.00,,,0.00,WUHU216HW,2013-05-19 20:14:00,
2013-05-19 13:15:00,87.8,28.1,29.79,North,0,0.0,0.0,12,0.00,,,0.00,WUHU216HW,2013-05-19 20:15:00,
2013-05-19 13:17:00,87.5,27.8,29.79,North,0,0.0,0.0,12,0.00,,,0.00,WUHU216HW,2013-05-19 20:17:00,
2013-05-19 13:19:00,87.7,28.0,29.79,North,0,0.0,0.0,12,0.00,,,0.00,WUHU216HW,2013-05-19 20:19:00,
2013-05-19 13:20:00,87.5,27.8,29.79,North,0,0.0,0.0,12,0.00,,,0.00,WUHU216HW,2013-05-19 20:20:00,
2013-05-19 13:22:00,87.5,26.1,29.79,North,0,0.0,0.0,11,0.00,,,0.00,WUHU216HW,2013-05-19 20:22:00,
2013-05-19 13:23:00,87.5,27.8,29.79,North,0,0.0,0.0,12,0.00,,,0.00,WUHU216HW,2013-05-19 20:23:00,
2013-05-19 13:24:00,87.7,28.0,29.79,North,0,0.0,0.0,12,0.00,,,0.00,WUHU216HW,2013-05-19 20:24:00,
2013-05-19 13:27:00,87.8,28.1,29.79,North,0,0.0,0.0,12,0.00,,,0.00,WUHU216HW,2013-05-19 20:27:00,
2013-05-19 13:28:00,87.8,28.1,29.79,North,0,0.0,0.0,12,0.00,,,0.00,WUHU216HW,2013-05-19 20:28:00,
2013-05-19 13:29:00,87.8,28.1,29.79,North,0,0.0,0.0,12,0.00,,,0.00,WUHU216HW,2013-05-19 20:29:00,
2013-05-19 13:33:00,88.4,28.5,29.79,North,0,0.0,0.0,12,0.00,,,0.00,WUHU216HW,2013-05-19 20:33:00,
2013-05-19 13:34:00,88.2,28.4,29.79,North,0,0.0,0.0,12,0.00,,,0.00,WUHU216HW,2013-05-19 20:34:00,
2013-05-19 13:35:00,88.6,28.6,29.79,North,0,0.0,0.0,12,0.00,,,0.00,WUHU216HW,2013-05-19 20:35:00,
2013-05-19 13:36:00,88.4,28.5,29.79,North,0,0.0,0.0,12,0.00,,,0.00,WUHU216HW,2013-05-19 20:36:00,
2013-05-19 13:39:00,88.4,28.5,29.79,North,0,0.0,0.0,12,0.00,,,0.00,WUHU216HW,2013-05-19 20:39:00,
2013-05-19 13:40:00,88.6,28.6,29.79,North,0,0.0,0.0,12,0.00,,,0.00,WUHU216HW,2013-05-19 20:40:00,
2013-05-19 13:41:00,88.6,28.6,29.79,North,0,0.0,0.0,12,0.00,,,0.00,WUHU216HW,2013-05-19 20:41:00,
2013-05-19 13:42:00,88.6,28.6,29.79,North,0,0.0,0.0,12,0.00,,,0.00,WUHU216HW,2013-05-19 20:42:00,
2013-05-19 13:45:00,88.6,28.6,29.79,North,0,0.0,0.0,12,0.00,,,0.00,WUHU216HW,2013-05-19 20:45:00,
2013-05-19 13:46:00,88.6,28.6,29.79,North,0,0.0,0.0,12,0.00,,,0.00,WUHU216HW,2013-05-19 20:46:00,
2013-05-19 13:48:00,88.6,26.9,29.79,North,0,0.0,0.0,11,0.00,,,0.00,WUHU216HW,2013-05-19 20:48:00,
2013-05-19 13:50:00,88.4,28.5,29.78,North,0,0.0,0.0,12,0.00,,,0.00,WUHU216HW,2013-05-19 20:50:00,
2013-05-19 13:51:00,88.4,28.5,29.79,North,0,0.0,0.0,12,0.00,,,0.00,WUHU216HW,2013-05-19 20:51:00,
2013-05-19 13:54:00,88.6,28.6,29.78,North,0,0.0,0.0,12,0.00,,,0.00,WUHU216HW,2013-05-19 20:54:00,
2013-05-19 13:55:00,88.6,26.9,29.78,North,0,0.0,0.0,11,0.00,,,0.00,WUHU216HW,2013-05-19 20:55:00,
2013-05-19 13:56:00,88.6,28.6,29.78,North,0,0.0,0.0,12,0.00,,,0.00,WUHU216HW,2013-05-19 20:56:00,
2013-05-19 13:57:00,88.7,28.8,29.78,North,0,0.0,0.0,12,0.00,,,0.00,WUHU216HW,2013-05-19 20:57:00,
2013-05-19 13:59:00,88.7,28.8,29.78,North,0,0.0,0.0,12,0.00,,,0.00,WUHU216HW,2013-05-19 20:59:00,
2013-05-19 14:01:00,88.9,27.2,29.78,North,0,0.0,0.0,11,0.00,,,0.00,WUHU216HW,2013-05-19 21:01:00,
2013-05-19 14:02:00,89.1,29.0,29.78,North,0,0.0,0.0,12,0.00,,,0.00,WUHU216HW,2013-05-19 21:02:00,
2013-05-19 14:05:00,89.3,29.2,29.78,North,0,0.0,0.0,12,0.00,,,0.00,WUHU216HW,2013-05-19 21:05:00,
2013-05-19 14:06:00,89.3,29.2,29.78,North,0,0.0,0.0,12,0.00,,,0.00,WUHU216HW,2013-05-19 21:06:00,
2013-05-19 14:08:00,89.5,29.3,29.78,North,0,0.0,0.0,12,0.00,,,0.00,WUHU216HW,2013-05-19 21:08:00,
2013-05-19 14:10:00,89.5,29.3,29.78,North,0,0.0,0.0,12,0.00,,,0.00,WUHU216HW,2013-05-19 21:10:00,
2013-05-19 14:11:00,89.5,29.3,29.78,North,0,0.0,0.0,12,0.00,,,0.00,WUHU216HW,2013-05-19 21:11:00,
2013-05-19 14:12:00,89.5,29.3,29.78,North,0,0.0,0.0,12,0.00,,,0.00,WUHU216HW,2013-05-19 21:12:00,
2013-05-19 14:13:00,89.5,29.3,29.78,North,0,0.0,0.0,12,0.00,,,0.00,WUHU216HW,2013-05-19 21:13:00,
2013-05-19 14:14:00,89.5,29.3,29.78,North,0,0.0,0.0,12,0.00,,,0.00,WUHU216HW,2013-05-19 21:14:00,
2013-05-19 14:16:00,89.3,29.2,29.78,North,0,0.0,0.0,12,0.00,,,0.00,WUHU216HW,2013-05-19 21:16:00,
2013-05-19 14:17:00,89.3,29.2,29.78,North,0,0.0,0.0,12,0.00,,,0.00,WUHU216HW,2013-05-19 21:17:00,
2013-05-19 14:18:00,89.5,29.3,29.78,North,0,0.0,0.0,12,0.00,,,0.00,WUHU216HW,2013-05-19 21:18:00,
2013-05-19 14:20:00,89.5,29.3,29.78,North,0,0.0,0.0,12,0.00,,,0.00,WUHU216HW,2013-05-19 21:20:00,
2013-05-19 14:22:00,89.5,29.3,29.77,North,0,0.0,0.0,12,0.00,,,0.00,WUHU216HW,2013-05-19 21:22:00,
2013-05-19 14:23:00,89.5,27.6,29.77,North,0,0.0,0.0,11,0.00,,,0.00,WUHU216HW,2013-05-19 21:23:00,
2013-05-19 14:24:00,89.5,29.3,29.78,North,0,0.0,0.0,12,0.00,,,0.00,WUHU216HW,2013-05-19 21:24:00,
2013-05-19 14:26:00,89.5,29.3,29.78,North,0,0.0,0.0,12,0.00,,,0.00,WUHU216HW,2013-05-19 21:26:00,
2013-05-19 14:28:00,89.5,27.6,29.77,North,0,0.0,0.0,11,0.00,,,0.00,WUHU216HW,2013-05-19 21:28:00,
2013-05-19 14:29:00,89.3,27.5,29.77,North,0,0.0,0.0,11,0.00,,,0.00,WUHU216HW,2013-05-19 21:29:00,
2013-05-19 14:31:00,89.3,27.5,29.78,North,0,0.0,0.0,11,0.00,,,0.00,WUHU216HW,2013-05-19 21:31:00,
2013-05-19 14:33:00,88.6,26.9,29.78,North,0,0.0,0.0,11,0.00,,,0.00,WUHU216HW,2013-05-19 21:33:00,
2013-05-19 14:34:00,88.4,26.7,29.78,North,0,0.0,0.0,11,0.00,,,0.00,WUHU216HW,2013-05-19 21:34:00,
2013-05-19 14:35:00,88.4,26.7,29.78,North,0,0.0,0.0,11,0.00,,,0.00,WUHU216HW,2013-05-19 21:35:00,
2013-05-19 14:36:00,88.4,26.7,29.78,North,0,0.0,0.0,11,0.00,,,0.00,WUHU216HW,2013-05-19 21:36:00,
2013-05-19 14:37:00,88.4,26.7,29.78,North,0,0.0,0.0,11,0.00,,,0.00,WUHU216HW,2013-05-19 21:37:00,
2013-05-19 14:39:00,88.4,26.7,29.78,North,0,0.0,0.0,11,0.00,,,0.00,WUHU216HW,2013-05-19 21:39:00,
2013-05-19 14:42:00,88.4,26.7,29.78,North,0,0.0,0.0,11,0.00,,,0.00,WUHU216HW,2013-05-19 21:42:00,
2013-05-19 14:43:00,88.4,26.7,29.78,North,0,0.0,0.0,11,0.00,,,0.00,WUHU216HW,2013-05-19 21:43:00,
2013-05-19 15:00:00,89.1,29.0,29.77,North,0,0.0,0.0,12,0.00,,,0.00,WUHU216HW,2013-05-19 22:00:00,
2013-05-19 15:01:00,89.1,29.0,29.77,North,0,0.0,0.0,12,0.00,,,0.00,WUHU216HW,2013-05-19 22:01:00,
2013-05-19 15:09:00,89.5,29.3,29.77,North,0,0.0,0.0,12,0.00,,,0.00,WUHU216HW,2013-05-19 22:09:00,
2013-05-19 15:10:00,89.5,27.6,29.78,North,0,0.0,0.0,11,0.00,,,0.00,WUHU216HW,2013-05-19 22:10:00,
2013-05-19 15:14:00,89.6,29.4,29.78,North,0,0.0,0.0,12,0.00,,,0.00,WUHU216HW,2013-05-19 22:14:00,
2013-05-19 15:15:00,89.6,27.6,29.78,North,0,0.0,0.0,11,0.00,,,0.00,WUHU216HW,2013-05-19 22:15:00,
2013-05-19 15:17:00,89.6,29.4,29.78,North,0,0.0,0.0,12,0.00,,,0.00,WUHU216HW,2013-05-19 22:17:00,
2013-05-19 15:20:00,89.5,29.3,29.77,North,0,0.0,0.0,12,0.00,,,0.00,WUHU216HW,2013-05-19 22:20:00,
2013-05-19 15:21:00,89.5,29.3,29.78,North,0,0.0,0.0,12,0.00,,,0.00,WUHU216HW,2013-05-19 22:21:00,
2013-05-19 15:22:00,89.5,29.3,29.78,North,0,0.0,0.0,12,0.00,,,0.00,WUHU216HW,2013-05-19 22:22:00,
2013-05-19 15:23:00,89.3,29.2,29.78,North,0,0.0,0.0,12,0.00,,,0.00,WUHU216HW,2013-05-19 22:23:00,
2013-05-19 15:26:00,89.3,29.2,29.78,North,0,0.0,0.0,12,0.00,,,0.00,WUHU216HW,2013-05-19 22:26:00,
2013-05-19 15:27:00,89.3,27.5,29.78,North,0,0.0,0.0,11,0.00,,,0.00,WUHU216HW,2013-05-19 22:27:00,
2013-05-19 15:28:00,89.3,29.2,29.77,North,0,0.0,0.0,12,0.00,,,0.00,WUHU216HW,2013-05-19 22:28:00,
2013-05-19 15:31:00,89.3,27.5,29.76,North,0,0.0,0.0,11,0.00,,,0.00,WUHU216HW,2013-05-19 22:31:00,
2013-05-19 15:32:00,89.1,29.0,29.76,North,0,0.0,0.0,12,0.00,,,0.00,WUHU216HW,2013-05-19 22:32:00,
2013-05-19 15:33:00,89.1,29.0,29.76,North,0,0.0,0.0,12,0.00,,,0.00,WUHU216HW,2013-05-19 22:33:00,
2013-05-19 15:37:00,89.1,29.0,29.77,North,0,0.0,0.0,12,0.00,,,0.00,WUHU216HW,2013-05-19 22:37:00,
2013-05-19 15:38:00,89.1,29.0,29.76,North,0,0.0,0.0,12,0.00,,,0.00,WUHU216HW,2013-05-19 22:38:00,
2013-05-19 15:39:00,89.1,29.0,29.76,North,0,0.0,0.0,12,0.00,,,0.00,WUHU216HW,2013-05-19 22:39:00,
2013-05-19 15:42:00,88.9,28.9,29.76,North,0,0.0,0.0,12,0.00,,,0.00,WUHU216HW,2013-05-19 22:42:00,
2013-05-19 15:43:00,88.9,28.9,29.76,North,0,0.0,0.0,12,0.00,,,0.00,WUHU216HW,2013-05-19 22:43:00,
2013-05-19 15:44:00,88.9,28.9,29.76,North,0,0.0,0.0,12,0.00,,,0.00,WUHU216HW,2013-05-19 22:44:00,
2013-05-19 15:46:00,88.9,28.9,29.76,North,0,0.0,0.0,12,0.00,,,0.00,WUHU216HW,2013-05-19 22:46:00,
2013-05-19 15:48:00,88.9,28.9,29.76,North,0,0.0,0.0,12,0.00,,,0.00,WUHU216HW,2013-05-19 22:48:00,
2013-05-19 15:49:00,88.9,28.9,29.76,North,0,0.0,0.0,12,0.00,,,0.00,WUHU216HW,2013-05-19 22:49:00,
2013-05-19 15:50:00,88.7,28.8,29.76,North,0,0.0,0.0,12,0.00,,,0.00,WUHU216HW,2013-05-19 22:50:00,
2013-05-19 15:52:00,88.6,28.6,29.76,North,0,0.0,0.0,12,0.00,,,0.00,WUHU216HW,2013-05-19 22:52:00,
2013-05-19 15:54:00,88.4,28.5,29.76,North,0,0.0,0.0,12,0.00,,,0.00,WUHU216HW,2013-05-19 22:54:00,
2013-05-19 15:55:00,88.4,28.5,29.76,North,0,0.0,0.0,12,0.00,,,0.00,WUHU216HW,2013-05-19 22:55:00,
2013-05-19 15:59:00,88.4,28.5,29.75,North,0,0.0,0.0,12,0.00,,,0.00,WUHU216HW,2013-05-19 22:59:00,
2013-05-19 16:01:00,88.4,28.5,29.76,North,0,0.0,0.0,12,0.00,,,0.00,WUHU216HW,2013-05-19 23:01:00,
2013-05-19 16:02:00,88.4,28.5,29.75,North,0,0.0,0.0,12,0.00,,,0.00,WUHU216HW,2013-05-19 23:02:00,
2013-05-19 16:04:00,88.4,28.5,29.75,North,0,0.0,0.0,12,0.00,,,0.00,WUHU216HW,2013-05-19 23:04:00,
2013-05-19 16:05:00,88.4,28.5,29.75,North,0,0.0,0.0,12,0.00,,,0.00,WUHU216HW,2013-05-19 23:05:00,
2013-05-19 16:06:00,88.4,28.5,29.75,North,0,0.0,0.0,12,0.00,,,0.00,WUHU216HW,2013-05-19 23:06:00,
2013-05-19 16:09:00,88.6,28.6,29.75,North,0,0.0,0.0,12,0.00,,,0.00,WUHU216HW,2013-05-19 23:09:00,
2013-05-19 16:10:00,88.6,28.6,29.75,North,0,0.0,0.0,12,0.00,,,0.00,WUHU216HW,2013-05-19 23:10:00,
2013-05-19 16:11:00,88.6,28.6,29.75,North,0,0.0,0.0,12,0.00,,,0.00,WUHU216HW,2013-05-19 23:11:00,
2013-05-19 16:12:00,88.6,28.6,29.75,North,0,0.0,0.0,12,0.00,,,0.00,WUHU216HW,2013-05-19 23:12:00,
2013-05-19 16:15:00,88.4,28.5,29.76,North,0,0.0,0.0,12,0.00,,,0.00,WUHU216HW,2013-05-19 23:15:00,
2013-05-19 16:16:00,88.4,28.5,29.76,North,0,0.0,0.0,12,0.00,,,0.00,WUHU216HW,2013-05-19 23:16:00,
2013-05-19 16:17:00,88.4,28.5,29.75,North,0,0.0,0.0,12,0.00,,,0.00,WUHU216HW,2013-05-19 23:17:00,
2013-05-19 16:18:00,88.2,28.4,29.75,North,0,0.0,0.0,12,0.00,,,0.00,WUHU216HW,2013-05-19 23:18:00,
2013-05-19 16:21:00,88.2,28.4,29.75,North,0,0.0,0.0,12,0.00,,,0.00,WUHU216HW,2013-05-19 23:21:00,
2013-05-19 16:22:00,88.2,28.4,29.75,North,0,0.0,0.0,12,0.00,,,0.00,WUHU216HW,2013-05-19 23:22:00,
2013-05-19 16:23:00,88.2,28.4,29.75,North,0,0.0,0.0,12,0.00,,,0.00,WUHU216HW,2013-05-19 23:23:00,
2013-05-19 16:25:00,88.2,28.4,29.75,North,0,0.0,0.0,12,0.00,,,0.00,WUHU216HW,2013-05-19 23:25:00,
2013-05-19 16:26:00,88.2,28.4,29.75,North,0,0.0,0.0,12,0.00,,,0.00,WUHU216HW,2013-05-19 23:26:00,
2013-05-19 16:27:00,88.2,28.4,29.75,North,0,0.0,0.0,12,0.00,,,0.00,WUHU216HW,2013-05-19 23:27:00,
2013-05-19 16:29:00,88.0,28.3,29.75,North,0,0.0,0.0,12,0.00,,,0.00,WUHU216HW,2013-05-19 23:29:00,
2013-05-19 16:30:00,87.8,28.1,29.75,North,0,0.0,0.0,12,0.00,,,0.00,WUHU216HW,2013-05-19 23:30:00,
2013-05-19 16:32:00,87.8,28.1,29.75,North,0,0.0,0.0,12,0.00,,,0.00,WUHU216HW,2013-05-19 23:32:00,
2013-05-19 16:33:00,87.8,28.1,29.75,North,0,0.0,0.0,12,0.00,,,0.00,WUHU216HW,2013-05-19 23:33:00,
2013-05-19 16:34:00,87.8,28.1,29.75,North,0,0.0,0.0,12,0.00,,,0.00,WUHU216HW,2013-05-19 23:34:00,
2013-05-19 16:36:00,87.8,28.1,29.75,North,0,0.0,0.0,12,0.00,,,0.00,WUHU216HW,2013-05-19 23:36:00,
2013-05-19 16:37:00,87.8,28.1,29.75,North,0,0.0,0.0,12,0.00,,,0.00,WUHU216HW,2013-05-19 23:37:00,
2013-05-19 16:39:00,87.8,28.1,29.75,North,0,0.0,0.0,12,0.00,,,0.00,WUHU216HW,2013-05-19 23:39:00,
2013-05-19 16:41:00,87.8,28.1,29.75,North,0,0.0,0.0,12,0.00,,,0.00,WUHU216HW,2013-05-19 23:41:00,
2013-05-19 16:42:00,87.8,28.1,29.75,North,0,0.0,0.0,12,0.00,,,0.00,WUHU216HW,2013-05-19 23:42:00,
2013-05-19 16:43:00,87.8,28.1,29.75,North,0,0.0,0.0,12,0.00,,,0.00,WUHU216HW,2013-05-19 23:43:00,
2013-05-19 16:44:00,87.7,28.0,29.75,North,0,0.0,0.0,12,0.00,,,0.00,WUHU216HW,2013-05-19 23:44:00,
2013-05-19 16:46:00,87.7,28.0,29.76,North,0,0.0,0.0,12,0.00,,,0.00,WUHU216HW,2013-05-19 23:46:00,
2013-05-19 16:47:00,87.7,28.0,29.75,North,0,0.0,0.0,12,0.00,,,0.00,WUHU216HW,2013-05-19 23:47:00,
2013-05-19 16:48:00,87.5,27.8,29.75,North,0,0.0,0.0,12,0.00,,,0.00,WUHU216HW,2013-05-19 23:48:00,
2013-05-19 16:51:00,87.5,27.8,29.75,North,0,0.0,0.0,12,0.00,,,0.00,WUHU216HW,2013-05-19 23:51:00,
2013-05-19 16:52:00,87.3,25.9,29.75,North,0,0.0,0.0,11,0.00,,,0.00,WUHU216HW,2013-05-19 23:52:00,
2013-05-19 16:54:00,87.1,27.6,29.76,North,0,0.0,0.0,12,0.00,,,0.00,WUHU216HW,2013-05-19 23:54:00,
2013-05-19 16:56:00,87.1,27.6,29.75,North,0,0.0,0.0,12,0.00,,,0.00,WUHU216HW,2013-05-19 23:56:00,
2013-05-19 16:57:00,87.1,27.6,29.75,North,0,0.0,0.0,12,0.00,,,0.00,WUHU216HW,2013-05-19 23:57:00,
2013-05-19 16:58:00,86.9,27.4,29.75,North,0,0.0,0.0,12,0.00,,,0.00,WUHU216HW,2013-05-19 23:58:00,
2013-05-19 16:59:00,86.9,27.4,29.75,North,0,0.0,0.0,12,0.00,,,0.00,WUHU216HW,2013-05-19 23:59:00,
2013-05-19 17:02:00,86.8,27.3,29.75,North,0,0.0,0.0,12,0.00,,,0.00,WUHU216HW,2013-05-20 00:02:00,
2013-05-19 17:03:00,86.8,27.3,29.75,North,0,0.0,0.0,12,0.00,,,0.00,WUHU216HW,2013-05-20 00:03:00,
2013-05-19 17:04:00,86.8,27.3,29.75,North,0,0.0,0.0,12,0.00,,,0.00,WUHU216HW,2013-05-20 00:04:00,
2013-05-19 17:05:00,86.8,27.3,29.75,North,0,0.0,0.0,12,0.00,,,0.00,WUHU216HW,2013-05-20 00:05:00,
2013-05-19 17:07:00,86.8,27.3,29.75,North,0,0.0,0.0,12,0.00,,,0.00,WUHU216HW,2013-05-20 00:07:00,
2013-05-19 17:09:00,86.8,27.3,29.75,North,0,0.0,0.0,12,0.00,,,0.00,WUHU216HW,2013-05-20 00:09:00,
2013-05-19 17:10:00,86.8,27.3,29.75,North,0,0.0,0.0,12,0.00,,,0.00,WUHU216HW,2013-05-20 00:10:00,
2013-05-19 17:11:00,86.8,27.3,29.75,North,0,0.0,0.0,12,0.00,,,0.00,WUHU216HW,2013-05-20 00:11:00,
2013-05-19 17:12:00,86.8,27.3,29.75,North,0,0.0,0.0,12,0.00,,,0.00,WUHU216HW,2013-05-20 00:12:00,
2013-05-19 17:15:00,86.8,27.3,29.75,North,0,0.0,0.0,12,0.00,,,0.00,WUHU216HW,2013-05-20 00:15:00,
2013-05-19 17:16:00,86.6,27.1,29.75,North,0,0.0,0.0,12,0.00,,,0.00,WUHU216HW,2013-05-20 00:16:00,
2013-05-19 17:18:00,86.6,27.1,29.75,North,0,0.0,0.0,12,0.00,,,0.00,WUHU216HW,2013-05-20 00:18:00,
2013-05-19 17:20:00,86.4,26.9,29.75,North,0,0.0,0.0,12,0.00,,,0.00,WUHU216HW,2013-05-20 00:20:00,
2013-05-19 17:21:00,86.4,26.9,29.75,North,0,0.0,0.0,12,0.00,,,0.00,WUHU216HW,2013-05-20 00:21:00,
2013-05-19 17:22:00,86.2,26.8,29.75,North,0,0.0,0.0,12,0.00,,,0.00,WUHU216HW,2013-05-20 00:22:00,
2013-05-19 17:23:00,86.2,26.8,29.75,North,0,0.0,0.0,12,0.00,,,0.00,WUHU216HW,2013-05-20 00:23:00,
2013-05-19 17:25:00,86.2,26.8,29.75,North,0,0.0,0.0,12,0.00,,,0.00,WUHU216HW,2013-05-20 00:25:00,
2013-05-19 17:27:00,86.0,26.6,29.75,North,0,0.0,0.0,12,0.00,,,0.00,WUHU216HW,2013-05-20 00:27:00,
2013-05-19 17:28:00,86.0,26.6,29.75,North,0,0.0,0.0,12,0.00,,,0.00,WUHU216HW,2013-05-20 00:28:00,
2013-05-19 17:30:00,86.0,26.6,29.75,North,0,0.0,0.0,12,0.00,,,0.00,WUHU216HW,2013-05-20 00:30:00,
2013-05-19 17:33:00,86.0,26.6,29.75,North,0,0.0,0.0,12,0.00,,,0.00,WUHU216HW,2013-05-20 00:33:00,
2013-05-19 17:34:00,86.0,26.6,29.75,North,0,0.0,0.0,12,0.00,,,0.00,WUHU216HW,2013-05-20 00:34:00,
2013-05-19 17:35:00,85.9,26.5,29.75,North,0,0.0,0.0,12,0.00,,,0.00,WUHU216HW,2013-05-20 00:35:00,
2013-05-19 17:36:00,85.9,26.5,29.75,North,0,0.0,0.0,12,0.00,,,0.00,WUHU216HW,2013-05-20 00:36:00,
2013-05-19 17:38:00,85.7,26.4,29.75,North,0,0.0,0.0,12,0.00,,,0.00,WUHU216HW,2013-05-20 00:38:00,
2013-05-19 17:40:00,85.7,26.4,29.75,North,0,0.0,0.0,12,0.00,,,0.00,WUHU216HW,2013-05-20 00:40:00,
2013-05-19 17:42:00,85.5,26.2,29.75,North,0,0.0,0.0,12,0.00,,,0.00,WUHU216HW,2013-05-20 00:42:00,
2013-05-19 17:43:00,85.3,26.1,29.75,North,0,0.0,0.0,12,0.00,,,0.00,WUHU216HW,2013-05-20 00:43:00,
2013-05-19 17:45:00,85.3,26.1,29.75,North,0,0.0,0.0,12,0.00,,,0.00,WUHU216HW,2013-05-20 00:45:00,
2013-05-19 17:46:00,85.3,26.1,29.75,North,0,0.0,0.0,12,0.00,,,0.00,WUHU216HW,2013-05-20 00:46:00,
2013-05-19 17:47:00,85.1,25.9,29.75,North,0,0.0,0.0,12,0.00,,,0.00,WUHU216HW,2013-05-20 00:47:00,
2013-05-19 17:49:00,85.0,25.7,29.74,North,0,0.0,0.0,12,0.00,,,0.00,WUHU216HW,2013-05-20 00:49:00,
2013-05-19 17:51:00,85.1,25.9,29.75,North,0,0.0,0.0,12,0.00,,,0.00,WUHU216HW,2013-05-20 00:51:00,
2013-05-19 17:52:00,85.0,25.7,29.74,North,0,0.0,0.0,12,0.00,,,0.00,WUHU216HW,2013-05-20 00:52:00,
2013-05-19 17:55:00,84.8,25.7,29.74,North,0,0.0,0.0,12,0.00,,,0.00,WUHU216HW,2013-05-20 00:55:00,
2013-05-19 17:56:00,84.8,25.7,29.74,North,0,0.0,0.0,12,0.00,,,0.00,WUHU216HW,2013-05-20 00:56:00,
2013-05-19 17:57:00,84.8,25.7,29.74,North,0,0.0,0.0,12,0.00,,,0.00,WUHU216HW,2013-05-20 00:57:00,
2013-05-19 17:59:00,84.6,25.5,29.74,North,0,0.0,0.0,12,0.00,,,0.00,WUHU216HW,2013-05-20 00:59:00,
2013-05-19 18:01:00,84.6,25.5,29.75,North,0,0.0,0.0,12,0.00,,,0.00,WUHU216HW,2013-05-20 01:01:00,
2013-05-19 18:03:00,84.2,25.2,29.75,North,0,0.0,0.0,12,0.00,,,0.00,WUHU216HW,2013-05-20 01:03:00,
2013-05-19 18:04:00,84.2,25.2,29.75,North,0,0.0,0.0,12,0.00,,,0.00,WUHU216HW,2013-05-20 01:04:00,
2013-05-19 18:06:00,84.2,25.2,29.75,North,0,0.0,0.0,12,0.00,,,0.00,WUHU216HW,2013-05-20 01:06:00,
2013-05-19 18:09:00,84.2,25.2,29.75,North,0,0.0,0.0,12,0.00,,,0.00,WUHU216HW,2013-05-20 01:09:00,
2013-05-19 18:10:00,84.2,25.2,29.75,North,0,0.0,0.0,12,0.00,,,0.00,WUHU216HW,2013-05-20 01:10:00,
2013-05-19 18:12:00,84.1,25.1,29.75,North,0,0.0,0.0,12,0.00,,,0.00,WUHU216HW,2013-05-20 01:12:00,
2013-05-19 18:14:00,83.9,24.9,29.75,North,0,0.0,0.0,12,0.00,,,0.00,WUHU216HW,2013-05-20 01:14:00,
2013-05-19 18:15:00,83.9,24.9,29.75,North,0,0.0,0.0,12,0.00,,,0.00,WUHU216HW,2013-05-20 01:15:00,
2013-05-19 18:18:00,83.7,24.9,29.75,North,0,0.0,0.0,12,0.00,,,0.00,WUHU216HW,2013-05-20 01:18:00,
2013-05-19 18:19:00,83.7,24.9,29.75,North,0,0.0,0.0,12,0.00,,,0.00,WUHU216HW,2013-05-20 01:19:00,
2013-05-19 18:20:00,83.7,24.9,29.75,North,0,0.0,0.0,12,0.00,,,0.00,WUHU216HW,2013-05-20 01:20:00,
2013-05-19 18:23:00,83.5,24.7,29.75,North,0,0.0,0.0,12,0.00,,,0.00,WUHU216HW,2013-05-20 01:23:00,
2013-05-19 18:24:00,83.5,24.7,29.75,North,0,0.0,0.0,12,0.00,,,0.00,WUHU216HW,2013-05-20 01:24:00,
2013-05-19 18:25:00,83.3,24.6,29.75,North,0,0.0,0.0,12,0.00,,,0.00,WUHU216HW,2013-05-20 01:25:00,
2013-05-19 18:26:00,83.3,24.6,29.75,North,0,0.0,0.0,12,0.00,,,0.00,WUHU216HW,2013-05-20 01:26:00,
2013-05-19 18:29:00,83.3,24.6,29.75,North,0,0.0,0.0,12,0.00,,,0.00,WUHU216HW,2013-05-20 01:29:00,
2013-05-19 18:30:00,83.2,24.4,29.75,North,0,0.0,0.0,12,0.00,,,0.00,WUHU216HW,2013-05-20 01:30:00,
2013-05-19 18:31:00,83.2,24.4,29.75,North,0,0.0,0.0,12,0.00,,,0.00,WUHU216HW,2013-05-20 01:31:00,
2013-05-19 18:32:00,83.2,24.4,29.75,North,0,0.0,0.0,12,0.00,,,0.00,WUHU216HW,2013-05-20 01:32:00,
2013-05-19 18:34:00,83.2,24.4,29.75,North,0,0.0,0.0,12,0.00,,,0.00,WUHU216HW,2013-05-20 01:34:00,
2013-05-19 18:35:00,83.2,24.4,29.75,North,0,0.0,0.0,12,0.00,,,0.00,WUHU216HW,2013-05-20 01:35:00,
2013-05-19 18:37:00,83.0,24.3,29.75,North,0,0.0,0.0,12,0.00,,,0.00,WUHU216HW,2013-05-20 01:37:00,
2013-05-19 18:39:00,82.8,24.1,29.75,North,0,0.0,0.0,12,0.00,,,0.00,WUHU216HW,2013-05-20 01:39:00,
2013-05-19 18:40:00,82.8,24.1,29.75,North,0,0.0,0.0,12,0.00,,,0.00,WUHU216HW,2013-05-20 01:40:00,
2013-05-19 18:41:00,82.8,24.1,29.75,North,0,0.0,0.0,12,0.00,,,0.00,WUHU216HW,2013-05-20 01:41:00,
2013-05-19 18:42:00,82.6,24.0,29.75,North,0,0.0,0.0,12,0.00,,,0.00,WUHU216HW,2013-05-20 01:42:00,
2013-05-19 18:44:00,82.6,24.0,29.75,North,0,0.0,0.0,12,0.00,,,0.00,WUHU216HW,2013-05-20 01:44:00,
2013-05-19 18:45:00,82.4,25.6,29.75,North,0,0.0,0.0,13,0.00,,,0.00,WUHU216HW,2013-05-20 01:45:00,
2013-05-19 18:46:00,82.4,25.6,29.75,North,0,0.0,0.0,13,0.00,,,0.00,WUHU216HW,2013-05-20 01:46:00,
2013-05-19 18:47:00,82.4,25.6,29.75,North,0,0.0,0.0,13,0.00,,,0.00,WUHU216HW,2013-05-20 01:47:00,
2013-05-19 18:48:00,82.4,24.0,29.75,North,0,0.0,0.0,12,0.00,,,0.00,WUHU216HW,2013-05-20 01:48:00,
2013-05-19 18:49:00,82.3,23.8,29.75,North,0,0.0,0.0,12,0.00,,,0.00,WUHU216HW,2013-05-20 01:49:00,
2013-05-19 18:51:00,82.3,23.8,29.75,North,0,0.0,0.0,12,0.00,,,0.00,WUHU216HW,2013-05-20 01:51:00,
2013-05-19 18:52:00,82.3,23.8,29.75,North,0,0.0,0.0,12,0.00,,,0.00,WUHU216HW,2013-05-20 01:52:00,
2013-05-19 18:54:00,82.1,23.6,29.76,North,0,0.0,0.0,12,0.00,,,0.00,WUHU216HW,2013-05-20 01:54:00,
2013-05-19 18:56:00,81.9,23.5,29.76,North,0,0.0,0.0,12,0.00,,,0.00,WUHU216HW,2013-05-20 01:56:00,
2013-05-19 18:57:00,81.9,23.5,29.76,North,0,0.0,0.0,12,0.00,,,0.00,WUHU216HW,2013-05-20 01:57:00,
2013-05-19 18:59:00,81.7,23.3,29.76,North,0,0.0,0.0,12,0.00,,,0.00,WUHU216HW,2013-05-20 01:59:00,
2013-05-19 19:01:00,81.7,23.3,29.76,North,0,0.0,0.0,12,0.00,,,0.00,WUHU216HW,2013-05-20 02:01:00,
2013-05-19 19:02:00,81.7,23.3,29.76,North,0,0.0,0.0,12,0.00,,,0.00,WUHU216HW,2013-05-20 02:02:00,
2013-05-19 19:03:00,81.5,23.2,29.76,North,0,0.0,0.0,12,0.00,,,0.00,WUHU216HW,2013-05-20 02:03:00,
2013-05-19 19:04:00,81.5,23.2,29.76,North,0,0.0,0.0,12,0.00,,,0.00,WUHU216HW,2013-05-20 02:04:00,
2013-05-19 19:06:00,81.4,23.0,29.76,North,0,0.0,0.0,12,0.00,,,0.00,WUHU216HW,2013-05-20 02:06:00,
2013-05-19 19:07:00,81.4,24.8,29.76,North,0,0.0,0.0,13,0.00,,,0.00,WUHU216HW,2013-05-20 02:07:00,
2013-05-19 19:08:00,81.4,24.8,29.76,North,0,0.0,0.0,13,0.00,,,0.00,WUHU216HW,2013-05-20 02:08:00,
2013-05-19 19:09:00,81.4,24.8,29.76,North,0,0.0,0.0,13,0.00,,,0.00,WUHU216HW,2013-05-20 02:09:00,
2013-05-19 19:10:00,81.2,24.6,29.77,North,0,0.0,0.0,13,0.00,,,0.00,WUHU216HW,2013-05-20 02:10:00,
2013-05-19 19:12:00,81.2,24.6,29.77,North,0,0.0,0.0,13,0.00,,,0.00,WUHU216HW,2013-05-20 02:12:00,
2013-05-19 19:13:00,81.2,24.6,29.77,North,0,0.0,0.0,13,0.00,,,0.00,WUHU216HW,2013-05-20 02:13:00,
2013-05-19 19:14:00,81.0,24.5,29.77,North,0,0.0,0.0,13,0.00,,,0.00,WUHU216HW,2013-05-20 02:14:00,
2013-05-19 19:16:00,81.0,24.5,29.77,North,0,0.0,0.0,13,0.00,,,0.00,WUHU216HW,2013-05-20 02:16:00,
2013-05-19 19:18:00,80.8,24.3,29.77,North,0,0.0,0.0,13,0.00,,,0.00,WUHU216HW,2013-05-20 02:18:00,
2013-05-19 19:19:00,80.8,24.3,29.77,North,0,0.0,0.0,13,0.00,,,0.00,WUHU216HW,2013-05-20 02:19:00,
2013-05-19 19:21:00,80.8,24.3,29.77,North,0,0.0,0.0,13,0.00,,,0.00,WUHU216HW,2013-05-20 02:21:00,
2013-05-19 19:23:00,80.5,24.0,29.77,North,0,0.0,0.0,13,0.00,,,0.00,WUHU216HW,2013-05-20 02:23:00,
2013-05-19 19:25:00,80.5,24.0,29.77,North,0,0.0,0.0,13,0.00,,,0.00,WUHU216HW,2013-05-20 02:25:00,
2013-05-19 19:26:00,80.3,23.9,29.77,North,0,0.0,0.0,13,0.00,,,0.00,WUHU216HW,2013-05-20 02:26:00,
2013-05-19 19:27:00,80.3,23.9,29.77,North,0,0.0,0.0,13,0.00,,,0.00,WUHU216HW,2013-05-20 02:27:00,
2013-05-19 19:29:00,80.3,23.9,29.78,North,0,0.0,0.0,13,0.00,,,0.00,WUHU216HW,2013-05-20 02:29:00,
2013-05-19 19:30:00,80.1,23.7,29.78,North,0,0.0,0.0,13,0.00,,,0.00,WUHU216HW,2013-05-20 02:30:00,
2013-05-19 19:32:00,79.9,23.6,29.78,North,0,0.0,0.0,13,0.00,,,0.00,WUHU216HW,2013-05-20 02:32:00,
2013-05-19 19:33:00,79.9,23.6,29.78,North,0,0.0,0.0,13,0.00,,,0.00,WUHU216HW,2013-05-20 02:33:00,
2013-05-19 19:34:00,79.9,23.6,29.78,North,0,0.0,0.0,13,0.00,,,0.00,WUHU216HW,2013-05-20 02:34:00,
2013-05-19 19:35:00,79.7,23.4,29.78,North,0,0.0,0.0,13,0.00,,,0.00,WUHU216HW,2013-05-20 02:35:00,
2013-05-19 19:38:00,79.6,23.2,29.78,North,0,0.0,0.0,13,0.00,,,0.00,WUHU216HW,2013-05-20 02:38:00,
2013-05-19 19:39:00,79.6,23.2,29.78,North,0,0.0,0.0,13,0.00,,,0.00,WUHU216HW,2013-05-20 02:39:00,
2013-05-19 19:40:00,79.6,23.2,29.78,North,0,0.0,0.0,13,0.00,,,0.00,WUHU216HW,2013-05-20 02:40:00,
2013-05-19 19:43:00,79.2,24.7,29.78,North,0,0.0,0.0,14,0.00,,,0.00,WUHU216HW,2013-05-20 02:43:00,
2013-05-19 19:44:00,79.2,24.7,29.78,North,0,0.0,0.0,14,0.00,,,0.00,WUHU216HW,2013-05-20 02:44:00,
2013-05-19 19:45:00,79.2,23.0,29.78,North,0,0.0,0.0,13,0.00,,,0.00,WUHU216HW,2013-05-20 02:45:00,
2013-05-19 19:46:00,79.2,23.0,29.78,North,0,0.0,0.0,13,0.00,,,0.00,WUHU216HW,2013-05-20 02:46:00,
2013-05-19 19:49:00,78.8,22.7,29.79,North,0,0.0,0.0,13,0.00,,,0.00,WUHU216HW,2013-05-20 02:49:00,
2013-05-19 19:50:00,78.8,22.7,29.79,North,0,0.0,0.0,13,0.00,,,0.00,WUHU216HW,2013-05-20 02:50:00,
2013-05-19 19:51:00,78.8,22.7,29.79,North,0,0.0,0.0,13,0.00,,,0.00,WUHU216HW,2013-05-20 02:51:00,
2013-05-19 19:55:00,78.7,22.5,29.79,North,0,0.0,0.0,13,0.00,,,0.00,WUHU216HW,2013-05-20 02:55:00,
2013-05-19 19:56:00,78.7,22.5,29.79,North,0,0.0,0.0,13,0.00,,,0.00,WUHU216HW,2013-05-20 02:56:00,
2013-05-19 19:57:00,78.7,22.5,29.79,North,0,0.0,0.0,13,0.00,,,0.00,WUHU216HW,2013-05-20 02:57:00,
2013-05-19 20:00:00,78.5,22.4,29.79,North,0,0.0,0.0,13,0.00,,,0.00,WUHU216HW,2013-05-20 03:00:00,
2013-05-19 20:01:00,78.5,22.4,29.79,North,0,0.0,0.0,13,0.00,,,0.00,WUHU216HW,2013-05-20 03:01:00,
2013-05-19 20:02:00,78.5,22.4,29.80,North,0,0.0,0.0,13,0.00,,,0.00,WUHU216HW,2013-05-20 03:02:00,
2013-05-19 20:03:00,78.5,22.4,29.79,North,0,0.0,0.0,13,0.00,,,0.00,WUHU216HW,2013-05-20 03:03:00,
2013-05-19 20:05:00,78.3,22.2,29.80,North,0,0.0,0.0,13,0.00,,,0.00,WUHU216HW,2013-05-20 03:05:00,
2013-05-19 20:07:00,78.3,22.2,29.80,North,0,0.0,0.0,13,0.00,,,0.00,WUHU216HW,2013-05-20 03:07:00,
2013-05-19 20:08:00,78.1,22.2,29.80,North,0,0.0,0.0,13,0.00,,,0.00,WUHU216HW,2013-05-20 03:08:00,
2013-05-19 20:11:00,78.1,22.2,29.80,North,0,0.0,0.0,13,0.00,,,0.00,WUHU216HW,2013-05-20 03:11:00,
2013-05-19 20:12:00,78.1,22.2,29.80,North,0,0.0,0.0,13,0.00,,,0.00,WUHU216HW,2013-05-20 03:12:00,
2013-05-19 20:13:00,78.1,22.2,29.80,North,0,0.0,0.0,13,0.00,,,0.00,WUHU216HW,2013-05-20 03:13:00,
2013-05-19 20:14:00,78.1,22.2,29.80,North,0,0.0,0.0,13,0.00,,,0.00,WUHU216HW,2013-05-20 03:14:00,
2013-05-19 20:17:00,77.9,22.0,29.80,North,0,0.0,0.0,13,0.00,,,0.00,WUHU216HW,2013-05-20 03:17:00,
2013-05-19 20:18:00,77.9,22.0,29.80,North,0,0.0,0.0,13,0.00,,,0.00,WUHU216HW,2013-05-20 03:18:00,
2013-05-19 20:19:00,77.8,21.9,29.80,North,0,0.0,0.0,13,0.00,,,0.00,WUHU216HW,2013-05-20 03:19:00,
2013-05-19 20:22:00,77.6,21.8,29.80,North,0,0.0,0.0,13,0.00,,,0.00,WUHU216HW,2013-05-20 03:22:00,
2013-05-19 20:23:00,77.6,21.8,29.80,North,0,0.0,0.0,13,0.00,,,0.00,WUHU216HW,2013-05-20 03:23:00,
2013-05-19 20:24:00,77.6,21.8,29.80,North,0,0.0,0.0,13,0.00,,,0.00,WUHU216HW,2013-05-20 03:24:00,
2013-05-19 20:25:00,77.6,21.8,29.80,North,0,0.0,0.0,13,0.00,,,0.00,WUHU216HW,2013-05-20 03:25:00,
2013-05-19 20:28:00,77.4,21.6,29.81,North,0,0.0,0.0,13,0.00,,,0.00,WUHU216HW,2013-05-20 03:28:00,
2013-05-19 20:29:00,77.4,21.6,29.81,North,0,0.0,0.0,13,0.00,,,0.00,WUHU216HW,2013-05-20 03:29:00,
2013-05-19 20:30:00,77.2,21.5,29.81,North,0,0.0,0.0,13,0.00,,,0.00,WUHU216HW,2013-05-20 03:30:00,
2013-05-19 20:31:00,77.2,21.5,29.81,North,0,0.0,0.0,13,0.00,,,0.00,WUHU216HW,2013-05-20 03:31:00,
2013-05-19 20:33:00,77.2,23.1,29.81,North,0,0.0,0.0,14,0.00,,,0.00,WUHU216HW,2013-05-20 03:33:00,
2013-05-19 20:34:00,77.2,23.1,29.81,North,0,0.0,0.0,14,0.00,,,0.00,WUHU216HW,2013-05-20 03:34:00,
2013-05-19 20:36:00,77.0,21.3,29.81,North,0,0.0,0.0,13,0.00,,,0.00,WUHU216HW,2013-05-20 03:36:00,
2013-05-19 20:38:00,77.0,23.1,29.81,North,0,0.0,0.0,14,0.00,,,0.00,WUHU216HW,2013-05-20 03:38:00,
2013-05-19 20:39:00,77.0,23.1,29.81,North,0,0.0,0.0,14,0.00,,,0.00,WUHU216HW,2013-05-20 03:39:00,
2013-05-19 20:40:00,76.9,24.5,29.81,North,0,0.0,0.0,15,0.00,,,0.00,WUHU216HW,2013-05-20 03:40:00,
2013-05-19 20:41:00,76.9,24.5,29.81,North,0,0.0,0.0,15,0.00,,,0.00,WUHU216HW,2013-05-20 03:41:00,
2013-05-19 20:43:00,76.9,24.5,29.82,North,0,0.0,0.0,15,0.00,,,0.00,WUHU216HW,2013-05-20 03:43:00,
2013-05-19 20:44:00,76.7,24.4,29.82,North,0,0.0,0.0,15,0.00,,,0.00,WUHU216HW,2013-05-20 03:44:00,
2013-05-19 20:45:00,76.7,24.4,29.82,North,0,0.0,0.0,15,0.00,,,0.00,WUHU216HW,2013-05-20 03:45:00,
2013-05-19 20:46:00,76.7,24.4,29.82,North,0,0.0,0.0,15,0.00,,,0.00,WUHU216HW,2013-05-20 03:46:00,
2013-05-19 20:48:00,76.7,24.4,29.82,North,0,0.0,0.0,15,0.00,,,0.00,WUHU216HW,2013-05-20 03:48:00,
2013-05-19 20:49:00,76.5,24.2,29.82,North,0,0.0,0.0,15,0.00,,,0.00,WUHU216HW,2013-05-20 03:49:00,
2013-05-19 20:50:00,76.5,24.2,29.82,North,0,0.0,0.0,15,0.00,,,0.00,WUHU216HW,2013-05-20 03:50:00,
2013-05-19 20:51:00,76.5,24.2,29.82,North,0,0.0,0.0,15,0.00,,,0.00,WUHU216HW,2013-05-20 03:51:00,
2013-05-19 20:52:00,76.5,24.2,29.82,North,0,0.0,0.0,15,0.00,,,0.00,WUHU216HW,2013-05-20 03:52:00,
2013-05-19 20:53:00,76.3,24.1,29.82,North,0,0.0,0.0,15,0.00,,,0.00,WUHU216HW,2013-05-20 03:53:00,
2013-05-19 20:55:00,76.3,24.1,29.82,North,0,0.0,0.0,15,0.00,,,0.00,WUHU216HW,2013-05-20 03:55:00,
2013-05-19 20:56:00,76.1,23.9,29.82,North,0,0.0,0.0,15,0.00,,,0.00,WUHU216HW,2013-05-20 03:56:00,
2013-05-19 20:57:00,76.1,23.9,29.82,North,0,0.0,0.0,15,0.00,,,0.00,WUHU216HW,2013-05-20 03:57:00,
2013-05-19 21:00:00,76.0,23.8,29.83,North,0,0.0,0.0,15,0.00,,,0.00,WUHU216HW,2013-05-20 04:00:00,
2013-05-19 21:01:00,76.0,23.8,29.83,North,0,0.0,0.0,15,0.00,,,0.00,WUHU216HW,2013-05-20 04:01:00,
2013-05-19 21:02:00,76.0,23.8,29.83,North,0,0.0,0.0,15,0.00,,,0.00,WUHU216HW,2013-05-20 04:02:00,
2013-05-19 21:06:00,75.6,25.2,29.83,North,0,0.0,0.0,16,0.00,,,0.00,WUHU216HW,2013-05-20 04:06:00,
2013-05-19 21:07:00,75.6,25.2,29.83,North,0,0.0,0.0,16,0.00,,,0.00,WUHU216HW,2013-05-20 04:07:00,
2013-05-19 21:11:00,75.4,26.6,29.83,North,0,0.0,0.0,17,0.00,,,0.00,WUHU216HW,2013-05-20 04:11:00,
2013-05-19 21:12:00,75.4,26.6,29.83,North,0,0.0,0.0,17,0.00,,,0.00,WUHU216HW,2013-05-20 04:12:00,
2013-05-19 21:16:00,75.2,24.8,29.83,North,0,0.0,0.0,16,0.00,,,0.00,WUHU216HW,2013-05-20 04:16:00,
2013-05-19 21:17:00,75.2,24.8,29.84,North,0,0.0,0.0,16,0.00,,,0.00,WUHU216HW,2013-05-20 04:17:00,
2013-05-19 21:18:00,75.2,24.8,29.84,North,0,0.0,0.0,16,0.00,,,0.00,WUHU216HW,2013-05-20 04:18:00,
2013-05-19 21:22:00,74.9,24.6,29.84,North,0,0.0,0.0,16,0.00,,,0.00,WUHU216HW,2013-05-20 04:22:00,
2013-05-19 21:23:00,74.9,24.6,29.84,North,0,0.0,0.0,16,0.00,,,0.00,WUHU216HW,2013-05-20 04:23:00,
2013-05-19 21:25:00,74.9,26.3,29.84,North,0,0.0,0.0,17,0.00,,,0.00,WUHU216HW,2013-05-20 04:25:00,
2013-05-19 21:28:00,74.7,24.5,29.84,North,0,0.0,0.0,16,0.00,,,0.00,WUHU216HW,2013-05-20 04:28:00,
2013-05-19 21:29:00,74.5,24.3,29.84,North,0,0.0,0.0,16,0.00,,,0.00,WUHU216HW,2013-05-20 04:29:00,
2013-05-19 21:30:00,74.5,24.3,29.84,North,0,0.0,0.0,16,0.00,,,0.00,WUHU216HW,2013-05-20 04:30:00,
2013-05-19 21:31:00,74.5,26.0,29.84,North,0,0.0,0.0,17,0.00,,,0.00,WUHU216HW,2013-05-20 04:31:00,
2013-05-19 21:34:00,74.5,26.0,29.84,North,0,0.0,0.0,17,0.00,,,0.00,WUHU216HW,2013-05-20 04:34:00,
2013-05-19 21:35:00,74.5,26.0,29.84,North,0,0.0,0.0,17,0.00,,,0.00,WUHU216HW,2013-05-20 04:35:00,
2013-05-19 21:36:00,74.3,27.5,29.84,North,0,0.0,0.0,18,0.00,,,0.00,WUHU216HW,2013-05-20 04:36:00,
2013-05-19 21:39:00,74.2,25.8,29.84,North,0,0.0,0.0,17,0.00,,,0.00,WUHU216HW,2013-05-20 04:39:00,
2013-05-19 21:40:00,74.2,25.8,29.84,North,0,0.0,0.0,17,0.00,,,0.00,WUHU216HW,2013-05-20 04:40:00,
2013-05-19 21:41:00,74.2,25.8,29.84,North,0,0.0,0.0,17,0.00,,,0.00,WUHU216HW,2013-05-20 04:41:00,
2013-05-19 21:44:00,74.0,27.2,29.84,North,0,0.0,0.0,18,0.00,,,0.00,WUHU216HW,2013-05-20 04:44:00,
2013-05-19 21:45:00,74.0,27.2,29.84,North,0,0.0,0.0,18,0.00,,,0.00,WUHU216HW,2013-05-20 04:45:00,
2013-05-19 21:46:00,73.8,27.1,29.85,North,0,0.0,0.0,18,0.00,,,0.00,WUHU216HW,2013-05-20 04:46:00,
2013-05-19 21:47:00,73.8,27.1,29.85,North,0,0.0,0.0,18,0.00,,,0.00,WUHU216HW,2013-05-20 04:47:00,
2013-05-19 21:49:00,73.8,27.1,29.84,North,0,0.0,0.0,18,0.00,,,0.00,WUHU216HW,2013-05-20 04:49:00,
2013-05-19 21:50:00,73.8,27.1,29.85,North,0,0.0,0.0,18,0.00,,,0.00,WUHU216HW,2013-05-20 04:50:00,
2013-05-19 21:51:00,73.6,26.9,29.85,North,0,0.0,0.0,18,0.00,,,0.00,WUHU216HW,2013-05-20 04:51:00,
2013-05-19 21:52:00,73.6,26.9,29.85,North,0,0.0,0.0,18,0.00,,,0.00,WUHU216HW,2013-05-20 04:52:00,
2013-05-19 21:55:00,73.4,26.8,29.85,North,0,0.0,0.0,18,0.00,,,0.00,WUHU216HW,2013-05-20 04:55:00,
2013-05-19 21:56:00,73.4,26.8,29.85,North,0,0.0,0.0,18,0.00,,,0.00,WUHU216HW,2013-05-20 04:56:00,
2013-05-19 21:57:00,73.4,26.8,29.85,North,0,0.0,0.0,18,0.00,,,0.00,WUHU216HW,2013-05-20 04:57:00,
2013-05-19 21:59:00,73.3,26.7,29.85,North,0,0.0,0.0,18,0.00,,,0.00,WUHU216HW,2013-05-20 04:59:00,
2013-05-19 22:00:00,73.3,26.7,29.85,North,0,0.0,0.0,18,0.00,,,0.00,WUHU216HW,2013-05-20 05:00:00,
2013-05-19 22:01:00,73.3,26.7,29.85,North,0,0.0,0.0,18,0.00,,,0.00,WUHU216HW,2013-05-20 05:01:00,
2013-05-19 22:03:00,73.1,26.5,29.85,North,0,0.0,0.0,18,0.00,,,0.00,WUHU216HW,2013-05-20 05:03:00,
2013-05-19 22:05:00,72.9,26.3,29.85,North,0,0.0,0.0,18,0.00,,,0.00,WUHU216HW,2013-05-20 05:05:00,
2013-05-19 22:06:00,72.9,26.3,29.85,North,0,0.0,0.0,18,0.00,,,0.00,WUHU216HW,2013-05-20 05:06:00,
2013-05-19 22:07:00,72.7,26.2,29.85,North,0,0.0,0.0,18,0.00,,,0.00,WUHU216HW,2013-05-20 05:07:00,
2013-05-19 22:09:00,72.7,26.2,29.85,North,0,0.0,0.0,18,0.00,,,0.00,WUHU216HW,2013-05-20 05:09:00,
2013-05-19 22:11:00,72.5,26.0,29.85,North,0,0.0,0.0,18,0.00,,,0.00,WUHU216HW,2013-05-20 05:11:00,
2013-05-19 22:12:00,72.5,26.0,29.85,North,0,0.0,0.0,18,0.00,,,0.00,WUHU216HW,2013-05-20 05:12:00,
2013-05-19 22:13:00,72.4,25.8,29.85,North,0,0.0,0.0,18,0.00,,,0.00,WUHU216HW,2013-05-20 05:13:00,
2013-05-19 22:14:00,72.4,25.8,29.85,North,0,0.0,0.0,18,0.00,,,0.00,WUHU216HW,2013-05-20 05:14:00,
2013-05-19 22:16:00,72.4,25.8,29.85,North,0,0.0,0.0,18,0.00,,,0.00,WUHU216HW,2013-05-20 05:16:00,
2013-05-19 22:17:00,72.2,24.0,29.85,North,0,0.0,0.0,17,0.00,,,0.00,WUHU216HW,2013-05-20 05:17:00,
2013-05-19 22:18:00,72.2,24.0,29.85,North,0,0.0,0.0,17,0.00,,,0.00,WUHU216HW,2013-05-20 05:18:00,
2013-05-19 22:19:00,72.2,24.0,29.85,North,0,0.0,0.0,17,0.00,,,0.00,WUHU216HW,2013-05-20 05:19:00,
2013-05-19 22:21:00,72.0,23.9,29.86,North,0,0.0,0.0,17,0.00,,,0.00,WUHU216HW,2013-05-20 05:21:00,
2013-05-19 22:23:00,72.0,23.9,29.85,North,0,0.0,0.0,17,0.00,,,0.00,WUHU216HW,2013-05-20 05:23:00,
2013-05-19 22:24:00,71.8,23.8,29.85,North,0,0.0,0.0,17,0.00,,,0.00,WUHU216HW,2013-05-20 05:24:00,
2013-05-19 22:26:00,71.8,23.8,29.86,North,0,0.0,0.0,17,0.00,,,0.00,WUHU216HW,2013-05-20 05:26:00,
2013-05-19 22:27:00,71.6,23.6,29.86,North,0,0.0,0.0,17,0.00,,,0.00,WUHU216HW,2013-05-20 05:27:00,
2013-05-19 22:29:00,71.6,23.6,29.86,North,0,0.0,0.0,17,0.00,,,0.00,WUHU216HW,2013-05-20 05:29:00,
2013-05-19 22:30:00,71.6,23.6,29.86,North,0,0.0,0.0,17,0.00,,,0.00,WUHU216HW,2013-05-20 05:30:00,
2013-05-19 22:32:00,71.6,23.6,29.86,North,0,0.0,0.0,17,0.00,,,0.00,WUHU216HW,2013-05-20 05:32:00,
2013-05-19 22:33:00,71.6,23.6,29.86,North,0,0.0,0.0,17,0.00,,,0.00,WUHU216HW,2013-05-20 05:33:00,
2013-05-19 22:35:00,71.6,23.6,29.86,North,0,0.0,0.0,17,0.00,,,0.00,WUHU216HW,2013-05-20 05:35:00,
2013-05-19 22:37:00,71.6,23.6,29.86,North,0,0.0,0.0,17,0.00,,,0.00,WUHU216HW,2013-05-20 05:37:00,
2013-05-19 22:38:00,71.6,23.6,29.86,North,0,0.0,0.0,17,0.00,,,0.00,WUHU216HW,2013-05-20 05:38:00,
2013-05-19 22:40:00,71.6,23.6,29.86,North,0,0.0,0.0,17,0.00,,,0.00,WUHU216HW,2013-05-20 05:40:00,
2013-05-19 22:41:00,71.6,23.6,29.86,North,0,0.0,0.0,17,0.00,,,0.00,WUHU216HW,2013-05-20 05:41:00,
2013-05-19 22:42:00,71.6,23.6,29.86,North,0,0.0,0.0,17,0.00,,,0.00,WUHU216HW,2013-05-20 05:42:00,
2013-05-19 22:43:00,71.5,23.4,29.86,North,0,0.0,0.0,17,0.00,,,0.00,WUHU216HW,2013-05-20 05:43:00,
2013-05-19 22:46:00,71.5,23.4,29.86,North,0,0.0,0.0,17,0.00,,,0.00,WUHU216HW,2013-05-20 05:46:00,
2013-05-19 22:47:00,71.3,23.3,29.86,North,0,0.0,0.0,17,0.00,,,0.00,WUHU216HW,2013-05-20 05:47:00,
2013-05-19 22:50:00,71.3,23.3,29.86,North,0,0.0,0.0,17,0.00,,,0.00,WUHU216HW,2013-05-20 05:50:00,
2013-05-19 22:52:00,71.1,23.1,29.86,North,0,0.0,0.0,17,0.00,,,0.00,WUHU216HW,2013-05-20 05:52:00,
2013-05-19 22:53:00,71.1,23.1,29.86,North,0,0.0,0.0,17,0.00,,,0.00,WUHU216HW,2013-05-20 05:53:00,
2013-05-19 22:55:00,70.9,23.1,29.86,North,0,0.0,0.0,17,0.00,,,0.00,WUHU216HW,2013-05-20 05:55:00,
2013-05-19 22:57:00,70.9,23.1,29.86,North,0,0.0,0.0,17,0.00,,,0.00,WUHU216HW,2013-05-20 05:57:00,
2013-05-19 22:58:00,70.9,23.1,29.86,North,0,0.0,0.0,17,0.00,,,0.00,WUHU216HW,2013-05-20 05:58:00,
2013-05-19 22:59:00,70.7,22.9,29.86,North,0,0.0,0.0,17,0.00,,,0.00,WUHU216HW,2013-05-20 05:59:00,
2013-05-19 23:01:00,70.6,22.7,29.86,North,0,0.0,0.0,17,0.00,,,0.00,WUHU216HW,2013-05-20 06:01:00,
2013-05-19 23:02:00,70.6,22.7,29.86,North,0,0.0,0.0,17,0.00,,,0.00,WUHU216HW,2013-05-20 06:02:00,
2013-05-19 23:03:00,70.6,22.7,29.86,North,0,0.0,0.0,17,0.00,,,0.00,WUHU216HW,2013-05-20 06:03:00,
2013-05-19 23:06:00,70.4,24.2,29.86,North,0,0.0,0.0,18,0.00,,,0.00,WUHU216HW,2013-05-20 06:06:00,
2013-05-19 23:07:00,70.4,24.2,29.86,North,0,0.0,0.0,18,0.00,,,0.00,WUHU216HW,2013-05-20 06:07:00,
2013-05-19 23:08:00,70.4,24.2,29.86,North,0,0.0,0.0,18,0.00,,,0.00,WUHU216HW,2013-05-20 06:08:00,
2013-05-19 23:10:00,70.2,24.0,29.87,North,0,0.0,0.0,18,0.00,,,0.00,WUHU216HW,2013-05-20 06:10:00,
2013-05-19 23:11:00,70.2,24.0,29.86,North,0,0.0,0.0,18,0.00,,,0.00,WUHU216HW,2013-05-20 06:11:00,
2013-05-19 23:12:00,70.0,24.0,29.86,North,0,0.0,0.0,18,0.00,,,0.00,WUHU216HW,2013-05-20 06:12:00,
2013-05-19 23:14:00,70.0,24.0,29.87,North,0,0.0,0.0,18,0.00,,,0.00,WUHU216HW,2013-05-20 06:14:00,
2013-05-19 23:15:00,70.0,24.0,29.86,North,0,0.0,0.0,18,0.00,,,0.00,WUHU216HW,2013-05-20 06:15:00,
2013-05-19 23:16:00,69.8,23.8,29.86,North,0,0.0,0.0,18,0.00,,,0.00,WUHU216HW,2013-05-20 06:16:00,
2013-05-19 23:19:00,69.8,23.8,29.87,North,0,0.0,0.0,18,0.00,,,0.00,WUHU216HW,2013-05-20 06:19:00,
2013-05-19 23:20:00,69.7,23.6,29.87,North,0,0.0,0.0,18,0.00,,,0.00,WUHU216HW,2013-05-20 06:20:00,
2013-05-19 23:22:00,69.7,23.6,29.87,North,0,0.0,0.0,18,0.00,,,0.00,WUHU216HW,2013-05-20 06:22:00,
2013-05-19 23:24:00,69.5,23.5,29.87,North,0,0.0,0.0,18,0.00,,,0.00,WUHU216HW,2013-05-20 06:24:00,
2013-05-19 23:25:00,69.5,23.5,29.87,North,0,0.0,0.0,18,0.00,,,0.00,WUHU216HW,2013-05-20 06:25:00,
2013-05-19 23:26:00,69.5,23.5,29.87,North,0,0.0,0.0,18,0.00,,,0.00,WUHU216HW,2013-05-20 06:26:00,
2013-05-19 23:27:00,69.5,23.5,29.87,North,0,0.0,0.0,18,0.00,,,0.00,WUHU216HW,2013-05-20 06:27:00,
2013-05-19 23:30:00,69.5,25.1,29.87,North,0,0.0,0.0,19,0.00,,,0.00,WUHU216HW,2013-05-20 06:30:00,
2013-05-19 23:31:00,69.5,25.1,29.87,North,0,0.0,0.0,19,0.00,,,0.00,WUHU216HW,2013-05-20 06:31:00,
2013-05-19 23:32:00,69.5,25.1,29.87,North,0,0.0,0.0,19,0.00,,,0.00,WUHU216HW,2013-05-20 06:32:00,
2013-05-19 23:33:00,69.5,25.1,29.87,North,0,0.0,0.0,19,0.00,,,0.00,WUHU216HW,2013-05-20 06:33:00,
2013-05-19 23:35:00,69.3,24.9,29.87,North,0,0.0,0.0,19,0.00,,,0.00,WUHU216HW,2013-05-20 06:35:00,
2013-05-19 23:36:00,69.3,24.9,29.87,North,0,0.0,0.0,19,0.00,,,0.00,WUHU216HW,2013-05-20 06:36:00,
2013-05-19 23:38:00,69.1,24.9,29.87,North,0,0.0,0.0,19,0.00,,,0.00,WUHU216HW,2013-05-20 06:38:00,
2013-05-19 23:39:00,69.1,24.9,29.87,North,0,0.0,0.0,19,0.00,,,0.00,WUHU216HW,2013-05-20 06:39:00,
2013-05-19 23:40:00,69.1,24.9,29.87,North,0,0.0,0.0,19,0.00,,,0.00,WUHU216HW,2013-05-20 06:40:00,
2013-05-19 23:42:00,69.1,24.9,29.87,North,0,0.0,0.0,19,0.00,,,0.00,WUHU216HW,2013-05-20 06:42:00,
2013-05-19 23:43:00,69.1,24.9,29.87,North,0,0.0,0.0,19,0.00,,,0.00,WUHU216HW,2013-05-20 06:43:00,
2013-05-19 23:45:00,69.1,24.9,29.87,North,0,0.0,0.0,19,0.00,,,0.00,WUHU216HW,2013-05-20 06:45:00,
2013-05-19 23:47:00,68.9,27.3,29.87,North,0,0.0,0.0,21,0.00,,,0.00,WUHU216HW,2013-05-20 06:47:00,
2013-05-19 23:48:00,68.9,27.3,29.87,North,0,0.0,0.0,21,0.00,,,0.00,WUHU216HW,2013-05-20 06:48:00,
2013-05-19 23:50:00,68.8,27.1,29.88,North,0,0.0,0.0,21,0.00,,,0.00,WUHU216HW,2013-05-20 06:50:00,
2013-05-19 23:52:00,68.8,27.1,29.88,North,0,0.0,0.0,21,0.00,,,0.00,WUHU216HW,2013-05-20 06:52:00,
2013-05-19 23:53:00,68.8,27.1,29.87,North,0,0.0,0.0,21,0.00,,,0.00,WUHU216HW,2013-05-20 06:53:00,
2013-05-19 23:55:00,68.6,28.0,29.87,North,0,0.0,0.0,22,0.00,,,0.00,WUHU216HW,2013-05-20 06:55:00,
2013-05-19 23:57:00,68.4,27.8,29.87,North,0,0.0,0.0,22,0.00,,,0.00,WUHU216HW,2013-05-20 06:57:00,
2013-05-19 23:58:00,68.4,26.8,29.87,North,0,0.0,0.0,21,0.00,,,0.00,WUHU216HW,2013-05-20 06:58:00,
2013-05-19 23:59:00,68.4,26.8,29.87,North,0,0.0,0.0,21,0.00,,,0.00,WUHU216HW,2013-05-20 06:59:00,